Time,TemperatureF,DewpointF,PressureIn,WindDirection,WindDirectionDegrees,WindSpeedMPH,WindSpeedGustMPH,Humidity,HourlyPrecipIn,Conditions,Clouds,dailyrainin,SoftwareType,DateUTC
2013-04-03 00:00:00,50.2,16.6,30.15,North,360,0.0,0.0,26,0.00,CLR,OVC,0.00,WeatherDisplay:10.37,2013-04-03 04:00:00,
2013-04-03 00:03:00,50.1,17.4,30.15,North,360,0.0,0.0,27,0.00,CLR,OVC,0.00,WeatherDisplay:10.37,2013-04-03 04:03:00,
2013-04-03 00:07:00,49.6,19.4,30.15,North,360,0.0,0.0,30,0.00,CLR,OVC,0.00,WeatherDisplay:10.37,2013-04-03 04:07:00,
2013-04-03 00:10:00,49.1,23.3,30.15,North,360,0.0,0.0,36,0.00,CLR,OVC,0.00,WeatherDisplay:10.37,2013-04-03 04:10:00,
2013-04-03 00:12:00,48.6,23.5,30.15,North,360,0.0,0.0,37,0.00,CLR,OVC,0.00,WeatherDisplay:10.37,2013-04-03 04:12:00,
2013-04-03 00:14:00,48.2,20.4,30.15,North,360,0.0,0.0,33,0.00,CLR,OVC,0.00,WeatherDisplay:10.37,2013-04-03 04:14:00,
2013-04-03 00:17:00,47.7,16.1,30.15,North,360,2.0,3.5,28,0.00,CLR,OVC,0.00,WeatherDisplay:10.37,2013-04-03 04:17:00,
2013-04-03 00:19:00,47.9,15.5,30.16,North,360,0.8,3.0,27,0.00,CLR,OVC,0.00,WeatherDisplay:10.37,2013-04-03 04:19:00,
2013-04-03 00:20:00,47.9,16.3,30.16,North,360,1.1,3.5,28,0.00,CLR,OVC,0.00,WeatherDisplay:10.37,2013-04-03 04:20:00,
2013-04-03 00:21:00,48.0,16.4,30.16,North,360,0.4,3.5,28,0.00,CLR,OVC,0.00,WeatherDisplay:10.37,2013-04-03 04:21:00,
2013-04-03 00:23:00,48.2,16.6,30.16,North,360,0.0,0.0,28,0.00,CLR,OVC,0.00,WeatherDisplay:10.37,2013-04-03 04:23:00,
2013-04-03 00:25:00,48.2,16.6,30.16,North,360,0.0,0.0,28,0.00,CLR,OVC,0.00,WeatherDisplay:10.37,2013-04-03 04:25:00,
2013-04-03 00:27:00,48.2,15.7,30.16,North,360,0.4,2.3,27,0.00,CLR,OVC,0.00,WeatherDisplay:10.37,2013-04-03 04:27:00,
2013-04-03 00:30:00,48.0,18.0,30.16,North,360,0.0,1.1,30,0.00,CLR,OVC,0.00,WeatherDisplay:10.37,2013-04-03 04:30:00,
2013-04-03 00:32:00,47.9,17.1,30.16,North,360,0.0,0.0,29,0.00,CLR,OVC,0.00,WeatherDisplay:10.37,2013-04-03 04:32:00,
2013-04-03 00:33:00,47.6,23.8,30.16,North,360,0.0,0.0,39,0.00,CLR,OVC,0.00,WeatherDisplay:10.37,2013-04-03 04:33:00,
2013-04-03 00:34:00,47.4,24.9,30.16,North,360,0.0,0.0,41,0.00,CLR,OVC,0.00,WeatherDisplay:10.37,2013-04-03 04:34:00,
2013-04-03 00:35:00,47.0,25.6,30.16,North,360,2.5,4.0,43,0.00,CLR,OVC,0.00,WeatherDisplay:10.37,2013-04-03 04:35:00,
2013-04-03 00:37:00,46.1,25.9,30.16,North,360,3.3,4.0,45,0.00,CLR,OVC,0.00,WeatherDisplay:10.37,2013-04-03 04:37:00,
2013-04-03 00:38:00,45.8,24.0,30.16,North,360,3.3,5.0,42,0.00,CLR,OVC,0.00,WeatherDisplay:10.37,2013-04-03 04:38:00,
2013-04-03 00:39:00,45.7,22.1,30.16,North,360,3.6,5.0,39,0.00,CLR,OVC,0.00,WeatherDisplay:10.37,2013-04-03 04:39:00,
2013-04-03 00:40:00,45.7,22.1,30.16,NNE,25,4.9,6.9,39,0.00,CLR,OVC,0.00,WeatherDisplay:10.37,2013-04-03 04:40:00,
2013-04-03 00:44:00,46.0,19.8,30.16,NNE,32,5.3,9.2,35,0.00,CLR,OVC,0.00,WeatherDisplay:10.37,2013-04-03 04:44:00,
2013-04-03 00:45:00,46.0,20.5,30.16,NNE,23,5.0,9.0,36,0.00,CLR,OVC,0.00,WeatherDisplay:10.37,2013-04-03 04:45:00,
2013-04-03 00:48:00,46.2,18.6,30.16,NNE,31,6.4,9.2,33,0.00,CLR,OVC,0.00,WeatherDisplay:10.37,2013-04-03 04:48:00,
2013-04-03 00:50:00,46.4,20.2,30.16,NNE,26,5.7,9.2,35,0.00,CLR,OVC,0.00,WeatherDisplay:10.37,2013-04-03 04:50:00,
2013-04-03 00:51:00,46.4,21.5,30.16,NNE,17,5.2,9.2,37,0.00,CLR,OVC,0.00,WeatherDisplay:10.37,2013-04-03 04:51:00,
2013-04-03 00:52:00,46.2,20.7,30.16,NNE,17,5.4,9.2,36,0.00,CLR,OVC,0.00,WeatherDisplay:10.37,2013-04-03 04:52:00,
2013-04-03 00:54:00,46.2,20.7,30.16,NNE,17,3.4,5.8,36,0.00,CLR,OVC,0.00,WeatherDisplay:10.37,2013-04-03 04:54:00,
2013-04-03 00:57:00,46.4,18.1,30.16,NNE,18,3.1,6.9,32,0.00,CLR,OVC,0.00,WeatherDisplay:10.37,2013-04-03 04:57:00,
2013-04-03 00:58:00,46.4,17.4,30.16,NNE,18,2.3,4.6,31,0.00,CLR,OVC,0.00,WeatherDisplay:10.37,2013-04-03 04:58:00,
2013-04-03 00:59:00,46.5,17.4,30.16,NNE,18,2.6,3.5,31,0.00,CLR,OVC,0.00,WeatherDisplay:10.37,2013-04-03 04:59:00,
2013-04-03 01:00:00,46.5,17.4,30.16,NNE,18,1.4,3.5,31,0.00,CLR,OVC,0.00,WeatherDisplay:10.37,2013-04-03 05:00:00,
2013-04-03 01:02:00,46.8,17.0,30.16,NNE,18,2.2,5.0,30,0.00,CLR,OVC,0.00,WeatherDisplay:10.37,2013-04-03 05:02:00,
2013-04-03 01:04:00,47.0,16.3,30.16,NNE,17,4.2,5.8,29,0.00,CLR,OVC,0.00,WeatherDisplay:10.37,2013-04-03 05:04:00,
2013-04-03 01:07:00,47.1,17.2,30.17,NNE,18,3.3,3.5,30,0.00,CLR,OVC,0.00,WeatherDisplay:10.37,2013-04-03 05:07:00,
2013-04-03 01:08:00,47.1,17.2,30.17,NNE,21,4.6,6.9,30,0.00,CLR,OVC,0.00,WeatherDisplay:10.37,2013-04-03 05:08:00,
2013-04-03 01:09:00,47.1,18.0,30.17,NNE,21,3.5,6.9,31,0.00,CLR,OVC,0.00,WeatherDisplay:10.37,2013-04-03 05:09:00,
2013-04-03 01:12:00,46.8,17.7,30.17,NNE,21,3.4,9.2,31,0.00,CLR,OVC,0.00,WeatherDisplay:10.37,2013-04-03 05:12:00,
2013-04-03 01:13:00,46.8,17.7,30.17,NNE,21,3.4,5.8,31,0.00,CLR,OVC,0.00,WeatherDisplay:10.37,2013-04-03 05:13:00,
2013-04-03 01:14:00,46.7,17.6,30.17,NNE,21,3.6,5.8,31,0.00,CLR,OVC,0.00,WeatherDisplay:10.37,2013-04-03 05:14:00,
2013-04-03 01:15:00,46.7,18.4,30.17,NNE,20,3.0,9.0,32,0.00,CLR,OVC,0.00,WeatherDisplay:10.37,2013-04-03 05:15:00,
2013-04-03 01:18:00,46.5,18.2,30.17,NNE,21,3.8,5.0,32,0.00,CLR,OVC,0.00,WeatherDisplay:10.37,2013-04-03 05:18:00,
2013-04-03 01:20:00,46.4,17.4,30.17,NNE,21,3.6,4.0,31,0.00,CLR,OVC,0.00,WeatherDisplay:10.37,2013-04-03 05:20:00,
2013-04-03 01:23:00,46.4,17.4,30.18,NNE,21,4.2,5.8,31,0.00,CLR,OVC,0.00,WeatherDisplay:10.37,2013-04-03 05:23:00,
2013-04-03 01:24:00,46.4,15.8,30.18,NNE,21,3.3,6.0,29,0.00,CLR,OVC,0.00,WeatherDisplay:10.37,2013-04-03 05:24:00,
2013-04-03 01:29:00,46.5,15.9,30.18,NNE,31,3.8,4.6,29,0.00,CLR,OVC,0.00,WeatherDisplay:10.37,2013-04-03 05:29:00,
2013-04-03 01:30:00,46.5,16.7,30.18,NNE,31,2.8,5.8,30,0.00,CLR,OVC,0.00,WeatherDisplay:10.37,2013-04-03 05:30:00,
2013-04-03 01:34:00,46.5,15.9,30.19,NNE,31,3.8,6.0,29,0.00,CLR,OVC,0.00,WeatherDisplay:10.37,2013-04-03 05:34:00,
2013-04-03 01:35:00,46.5,15.9,30.19,NNE,31,4.2,5.8,29,0.00,CLR,OVC,0.00,WeatherDisplay:10.37,2013-04-03 05:35:00,
2013-04-03 01:36:00,46.5,15.9,30.19,NNE,31,3.3,6.0,29,0.00,CLR,OVC,0.00,WeatherDisplay:10.37,2013-04-03 05:36:00,
2013-04-03 01:37:00,46.5,15.9,30.19,NNE,31,4.3,6.0,29,0.00,CLR,OVC,0.00,WeatherDisplay:10.37,2013-04-03 05:37:00,
2013-04-03 01:40:00,46.4,16.6,30.19,NNE,31,3.6,4.6,30,0.00,CLR,OVC,0.00,WeatherDisplay:10.37,2013-04-03 05:40:00,
2013-04-03 01:42:00,46.4,15.8,30.19,NNE,31,4.0,5.0,29,0.00,CLR,OVC,0.00,WeatherDisplay:10.37,2013-04-03 05:42:00,
2013-04-03 01:43:00,46.4,15.0,30.19,NNE,31,4.2,5.0,28,0.00,CLR,OVC,0.00,WeatherDisplay:10.37,2013-04-03 05:43:00,
2013-04-03 01:47:00,46.4,15.8,30.19,NNE,31,1.5,4.6,29,0.00,CLR,OVC,0.00,WeatherDisplay:10.37,2013-04-03 05:47:00,
2013-04-03 01:48:00,46.4,15.8,30.19,NNE,31,2.5,4.6,29,0.00,CLR,OVC,0.00,WeatherDisplay:10.37,2013-04-03 05:48:00,
2013-04-03 01:51:00,46.2,14.8,30.19,NNE,31,1.9,3.5,28,0.00,CLR,OVC,0.00,WeatherDisplay:10.37,2013-04-03 05:51:00,
2013-04-03 01:52:00,46.2,14.0,30.19,NNE,31,2.0,4.6,27,0.00,CLR,OVC,0.00,WeatherDisplay:10.37,2013-04-03 05:52:00,
2013-04-03 01:53:00,46.2,15.6,30.19,NNE,31,1.0,2.3,29,0.00,CLR,OVC,0.00,WeatherDisplay:10.37,2013-04-03 05:53:00,
2013-04-03 01:54:00,46.1,14.8,30.19,NNE,31,2.3,3.5,28,0.00,CLR,OVC,0.00,WeatherDisplay:10.37,2013-04-03 05:54:00,
2013-04-03 01:58:00,46.0,15.5,30.19,NNE,31,1.6,4.0,29,0.00,CLR,OVC,0.00,WeatherDisplay:10.37,2013-04-03 05:58:00,
2013-04-03 01:59:00,45.8,15.3,30.19,NNE,31,2.2,3.5,29,0.00,CLR,OVC,0.00,WeatherDisplay:10.37,2013-04-03 05:59:00,
2013-04-03 02:00:00,45.8,15.3,30.19,NNE,31,2.0,5.0,29,0.00,CLR,OVC,0.00,WeatherDisplay:10.37,2013-04-03 06:00:00,
2013-04-03 02:01:00,45.8,15.3,30.19,NNE,31,2.4,3.5,29,0.00,CLR,OVC,0.00,WeatherDisplay:10.37,2013-04-03 06:01:00,
2013-04-03 02:03:00,45.7,15.2,30.20,NNE,31,3.5,5.8,29,0.00,CLR,OVC,0.00,WeatherDisplay:10.37,2013-04-03 06:03:00,
2013-04-03 02:05:00,45.7,14.4,30.20,NNE,31,3.5,5.8,28,0.00,CLR,OVC,0.00,WeatherDisplay:10.37,2013-04-03 06:05:00,
2013-04-03 02:06:00,45.8,14.5,30.20,NNE,31,2.5,4.6,28,0.00,CLR,OVC,0.00,WeatherDisplay:10.37,2013-04-03 06:06:00,
2013-04-03 02:10:00,45.7,14.4,30.20,NNE,31,0.6,2.3,28,0.00,CLR,OVC,0.00,WeatherDisplay:10.37,2013-04-03 06:10:00,
2013-04-03 02:12:00,45.7,14.4,30.20,NNE,31,1.4,3.5,28,0.00,CLR,OVC,0.00,WeatherDisplay:10.37,2013-04-03 06:12:00,
2013-04-03 02:13:00,45.7,14.4,30.20,NNE,31,2.6,4.0,28,0.00,CLR,OVC,0.00,WeatherDisplay:10.37,2013-04-03 06:13:00,
2013-04-03 02:17:00,45.7,14.4,30.20,NNE,31,1.5,3.5,28,0.00,CLR,OVC,0.00,WeatherDisplay:10.37,2013-04-03 06:17:00,
2013-04-03 02:18:00,45.7,14.4,30.20,NNE,31,2.4,4.0,28,0.00,CLR,OVC,0.00,WeatherDisplay:10.37,2013-04-03 06:18:00,
2013-04-03 02:19:00,45.7,13.6,30.21,NNE,31,0.5,3.5,27,0.00,CLR,OVC,0.00,WeatherDisplay:10.37,2013-04-03 06:19:00,
2013-04-03 02:23:00,45.5,14.2,30.21,NNE,31,3.3,5.0,28,0.00,CLR,OVC,0.00,WeatherDisplay:10.37,2013-04-03 06:23:00,
2013-04-03 02:24:00,45.4,14.1,30.21,NNE,31,3.4,3.5,28,0.00,CLR,OVC,0.00,WeatherDisplay:10.37,2013-04-03 06:24:00,
2013-04-03 02:27:00,45.2,14.8,30.21,NNE,31,2.6,4.6,29,0.00,CLR,OVC,0.00,WeatherDisplay:10.37,2013-04-03 06:27:00,
2013-04-03 02:28:00,45.2,14.0,30.21,NNE,31,3.0,4.6,28,0.00,CLR,OVC,0.00,WeatherDisplay:10.37,2013-04-03 06:28:00,
2013-04-03 02:29:00,45.2,14.8,30.21,NNE,31,2.6,4.6,29,0.00,CLR,OVC,0.00,WeatherDisplay:10.37,2013-04-03 06:29:00,
2013-04-03 02:30:00,45.1,13.9,30.21,NNE,31,2.4,4.6,28,0.00,CLR,OVC,0.00,WeatherDisplay:10.37,2013-04-03 06:30:00,
2013-04-03 02:33:00,45.1,13.9,30.21,NNE,31,3.0,4.0,28,0.00,CLR,OVC,0.00,WeatherDisplay:10.37,2013-04-03 06:33:00,
2013-04-03 02:34:00,45.1,14.7,30.21,NNE,31,2.6,4.0,29,0.00,CLR,OVC,0.00,WeatherDisplay:10.37,2013-04-03 06:34:00,
2013-04-03 02:35:00,44.9,14.5,30.21,NNE,31,3.0,4.0,29,0.00,CLR,OVC,0.00,WeatherDisplay:10.37,2013-04-03 06:35:00,
2013-04-03 02:38:00,44.8,14.4,30.21,NNE,31,2.5,3.5,29,0.00,CLR,OVC,0.00,WeatherDisplay:10.37,2013-04-03 06:38:00,
2013-04-03 02:40:00,44.8,13.6,30.21,NNE,31,2.5,3.5,28,0.00,CLR,OVC,0.00,WeatherDisplay:10.37,2013-04-03 06:40:00,
2013-04-03 02:43:00,44.6,14.3,30.21,NNE,31,3.1,4.0,29,0.00,CLR,OVC,0.00,WeatherDisplay:10.37,2013-04-03 06:43:00,
2013-04-03 02:45:00,44.6,14.3,30.21,NNE,31,2.3,5.0,29,0.00,CLR,OVC,0.00,WeatherDisplay:10.37,2013-04-03 06:45:00,
2013-04-03 02:47:00,44.5,14.2,30.21,NNE,31,2.5,4.6,29,0.00,CLR,OVC,0.00,WeatherDisplay:10.37,2013-04-03 06:47:00,
2013-04-03 02:48:00,44.3,14.0,30.21,NNE,31,2.6,3.5,29,0.00,CLR,OVC,0.00,WeatherDisplay:10.37,2013-04-03 06:48:00,
2013-04-03 02:52:00,44.1,15.3,30.21,NNE,32,4.7,8.1,31,0.00,CLR,OVC,0.00,WeatherDisplay:10.37,2013-04-03 06:52:00,
2013-04-03 02:53:00,44.1,15.3,30.21,NNE,32,5.8,6.9,31,0.00,CLR,OVC,0.00,WeatherDisplay:10.37,2013-04-03 06:53:00,
2013-04-03 02:54:00,44.1,14.6,30.21,NNE,32,5.6,6.9,30,0.00,CLR,OVC,0.00,WeatherDisplay:10.37,2013-04-03 06:54:00,
2013-04-03 02:57:00,43.8,15.1,30.21,NNE,32,4.6,6.0,31,0.00,CLR,OVC,0.00,WeatherDisplay:10.37,2013-04-03 06:57:00,
2013-04-03 02:58:00,43.8,14.3,30.21,NNE,32,5.3,7.0,30,0.00,CLR,OVC,0.00,WeatherDisplay:10.37,2013-04-03 06:58:00,
2013-04-03 02:59:00,43.8,13.6,30.21,NNE,32,4.6,6.9,29,0.00,CLR,OVC,0.00,WeatherDisplay:10.37,2013-04-03 06:59:00,
2013-04-03 03:00:00,43.8,14.3,30.21,NNE,32,4.6,6.9,30,0.00,CLR,OVC,0.00,WeatherDisplay:10.37,2013-04-03 07:00:00,
2013-04-03 03:04:00,43.8,14.3,30.21,NE,34,4.7,5.8,30,0.00,CLR,OVC,0.00,WeatherDisplay:10.37,2013-04-03 07:04:00,
2013-04-03 03:05:00,43.9,12.8,30.21,NE,34,4.3,4.6,28,0.00,CLR,OVC,0.00,WeatherDisplay:10.37,2013-04-03 07:05:00,
2013-04-03 03:09:00,44.2,13.1,30.20,NE,34,3.8,5.0,28,0.00,CLR,OVC,0.00,WeatherDisplay:10.37,2013-04-03 07:09:00,
2013-04-03 03:10:00,44.2,12.3,30.20,NE,35,4.9,6.0,27,0.00,CLR,OVC,0.00,WeatherDisplay:10.37,2013-04-03 07:10:00,
2013-04-03 03:12:00,44.2,12.3,30.20,NE,36,4.3,6.9,27,0.00,CLR,OVC,0.00,WeatherDisplay:10.37,2013-04-03 07:12:00,
2013-04-03 03:15:00,44.2,12.3,30.21,NE,36,2.9,6.9,27,0.00,CLR,OVC,0.00,WeatherDisplay:10.37,2013-04-03 07:15:00,
2013-04-03 03:16:00,44.2,13.1,30.21,NE,36,2.7,3.5,28,0.00,CLR,OVC,0.00,WeatherDisplay:10.37,2013-04-03 07:16:00,
2013-04-03 03:17:00,44.2,12.3,30.21,NE,36,2.7,3.5,27,0.00,CLR,OVC,0.00,WeatherDisplay:10.37,2013-04-03 07:17:00,
2013-04-03 03:20:00,44.2,13.1,30.21,NE,36,2.6,4.6,28,0.00,CLR,OVC,0.00,WeatherDisplay:10.37,2013-04-03 07:20:00,
2013-04-03 03:21:00,44.2,12.3,30.21,NE,36,1.4,3.5,27,0.00,CLR,OVC,0.00,WeatherDisplay:10.37,2013-04-03 07:21:00,
2013-04-03 03:22:00,44.2,13.1,30.21,NE,36,1.8,3.5,28,0.00,CLR,OVC,0.00,WeatherDisplay:10.37,2013-04-03 07:22:00,
2013-04-03 03:23:00,44.1,12.2,30.21,NE,36,1.6,4.0,27,0.00,CLR,OVC,0.00,WeatherDisplay:10.37,2013-04-03 07:23:00,
2013-04-03 03:26:00,43.9,12.8,30.21,NE,36,2.3,3.5,28,0.00,CLR,OVC,0.00,WeatherDisplay:10.37,2013-04-03 07:26:00,
2013-04-03 03:28:00,43.8,12.8,30.20,NE,36,1.5,3.5,28,0.00,CLR,OVC,0.00,WeatherDisplay:10.37,2013-04-03 07:28:00,
2013-04-03 03:31:00,43.5,13.3,30.20,NE,36,2.6,3.5,29,0.00,CLR,OVC,0.00,WeatherDisplay:10.37,2013-04-03 07:31:00,
2013-04-03 03:32:00,43.5,13.3,30.20,NE,36,2.2,3.5,29,0.00,CLR,OVC,0.00,WeatherDisplay:10.37,2013-04-03 07:32:00,
2013-04-03 03:33:00,43.5,12.5,30.21,NE,36,1.3,3.5,28,0.00,CLR,OVC,0.00,WeatherDisplay:10.37,2013-04-03 07:33:00,
2013-04-03 03:34:00,43.3,12.3,30.21,NE,36,1.3,3.5,28,0.00,CLR,OVC,0.00,WeatherDisplay:10.37,2013-04-03 07:34:00,
2013-04-03 03:37:00,43.2,12.2,30.21,NE,36,1.3,3.0,28,0.00,CLR,OVC,0.00,WeatherDisplay:10.37,2013-04-03 07:37:00,
2013-04-03 03:38:00,43.2,12.2,30.21,NE,36,1.6,3.0,28,0.00,CLR,OVC,0.00,WeatherDisplay:10.37,2013-04-03 07:38:00,
2013-04-03 03:39:00,43.2,12.2,30.21,NE,36,3.2,3.5,28,0.00,CLR,OVC,0.00,WeatherDisplay:10.37,2013-04-03 07:39:00,
2013-04-03 03:42:00,43.2,12.2,30.21,NE,36,2.2,3.5,28,0.00,CLR,OVC,0.00,WeatherDisplay:10.37,2013-04-03 07:42:00,
2013-04-03 03:43:00,43.2,12.2,30.21,NE,36,2.3,3.5,28,0.00,CLR,OVC,0.00,WeatherDisplay:10.37,2013-04-03 07:43:00,
2013-04-03 03:44:00,43.2,13.0,30.21,NE,36,1.9,3.5,29,0.00,CLR,OVC,0.00,WeatherDisplay:10.37,2013-04-03 07:44:00,
2013-04-03 03:47:00,42.9,12.8,30.21,NE,36,2.2,3.5,29,0.00,CLR,OVC,0.00,WeatherDisplay:10.37,2013-04-03 07:47:00,
2013-04-03 03:49:00,42.9,12.8,30.21,NE,36,2.3,3.5,29,0.00,CLR,OVC,0.00,WeatherDisplay:10.37,2013-04-03 07:49:00,
2013-04-03 03:51:00,42.8,12.7,30.21,NE,36,2.7,4.0,29,0.00,CLR,OVC,0.00,WeatherDisplay:10.37,2013-04-03 07:51:00,
2013-04-03 03:52:00,42.9,12.8,30.20,NE,36,2.8,4.0,29,0.00,CLR,OVC,0.00,WeatherDisplay:10.37,2013-04-03 07:52:00,
2013-04-03 03:53:00,42.9,12.8,30.21,NE,36,2.9,4.0,29,0.00,CLR,OVC,0.00,WeatherDisplay:10.37,2013-04-03 07:53:00,
2013-04-03 03:55:00,42.9,13.5,30.21,NE,36,2.1,3.5,30,0.00,CLR,OVC,0.00,WeatherDisplay:10.37,2013-04-03 07:55:00,
2013-04-03 03:57:00,42.8,13.5,30.21,NE,36,0.4,3.5,30,0.00,CLR,OVC,0.00,WeatherDisplay:10.37,2013-04-03 07:57:00,
2013-04-03 03:59:00,42.8,13.5,30.21,NE,36,0.0,3.5,30,0.00,CLR,OVC,0.00,WeatherDisplay:10.37,2013-04-03 07:59:00,
2013-04-03 04:00:00,42.6,13.3,30.21,NE,36,0.0,2.0,30,0.00,CLR,OVC,0.00,WeatherDisplay:10.37,2013-04-03 08:00:00,
2013-04-03 04:01:00,42.5,13.2,30.21,NE,36,1.5,2.3,30,0.00,CLR,OVC,0.00,WeatherDisplay:10.37,2013-04-03 08:01:00,
2013-04-03 04:02:00,42.5,13.2,30.21,NE,36,1.4,2.3,30,0.00,CLR,OVC,0.00,WeatherDisplay:10.37,2013-04-03 08:02:00,
2013-04-03 04:05:00,42.3,13.8,30.21,NE,36,2.5,3.5,31,0.00,CLR,OVC,0.00,WeatherDisplay:10.37,2013-04-03 08:05:00,
2013-04-03 04:06:00,42.2,13.7,30.21,NE,36,2.0,3.5,31,0.00,CLR,OVC,0.00,WeatherDisplay:10.37,2013-04-03 08:06:00,
2013-04-03 04:09:00,42.1,14.3,30.21,NE,36,2.5,3.5,32,0.00,CLR,OVC,0.00,WeatherDisplay:10.37,2013-04-03 08:09:00,
2013-04-03 04:10:00,41.9,14.1,30.21,NE,36,3.1,4.6,32,0.00,CLR,OVC,0.00,WeatherDisplay:10.37,2013-04-03 08:10:00,
2013-04-03 04:12:00,41.8,14.1,30.21,NE,36,2.6,4.6,32,0.00,CLR,OVC,0.00,WeatherDisplay:10.37,2013-04-03 08:12:00,
2013-04-03 04:13:00,41.6,13.9,30.21,NE,36,3.0,3.5,32,0.00,CLR,OVC,0.00,WeatherDisplay:10.37,2013-04-03 08:13:00,
2013-04-03 04:17:00,41.5,14.5,30.21,NE,36,2.7,4.6,33,0.00,CLR,OVC,0.00,WeatherDisplay:10.37,2013-04-03 08:17:00,
2013-04-03 04:18:00,41.3,14.3,30.21,NE,36,2.9,4.0,33,0.00,CLR,OVC,0.00,WeatherDisplay:10.37,2013-04-03 08:18:00,
2013-04-03 04:19:00,41.3,14.3,30.21,NE,36,3.6,3.6,33,0.00,CLR,OVC,0.00,WeatherDisplay:10.37,2013-04-03 08:19:00,
2013-04-03 04:24:00,41.1,15.5,30.21,NE,36,5.9,8.1,35,0.00,CLR,OVC,0.00,WeatherDisplay:10.37,2013-04-03 08:24:00,
2013-04-03 04:25:00,41.1,15.5,30.21,NE,36,6.1,8.1,35,0.00,CLR,OVC,0.00,WeatherDisplay:10.37,2013-04-03 08:25:00,
2013-04-03 04:30:00,40.9,15.3,30.21,NE,36,5.1,5.8,35,0.00,CLR,OVC,0.00,WeatherDisplay:10.37,2013-04-03 08:30:00,
2013-04-03 04:31:00,40.9,14.6,30.21,NE,36,4.4,5.8,34,0.00,CLR,OVC,0.00,WeatherDisplay:10.37,2013-04-03 08:31:00,
2013-04-03 04:33:00,40.9,14.6,30.21,NE,36,3.8,5.8,34,0.00,CLR,OVC,0.00,WeatherDisplay:10.37,2013-04-03 08:33:00,
2013-04-03 04:36:00,40.9,14.6,30.21,NE,36,3.7,3.7,34,0.00,CLR,OVC,0.00,WeatherDisplay:10.37,2013-04-03 08:36:00,
2013-04-03 04:38:00,40.9,14.6,30.21,NE,36,4.0,4.0,34,0.00,CLR,OVC,0.00,WeatherDisplay:10.37,2013-04-03 08:38:00,
2013-04-03 04:39:00,40.9,14.6,30.21,NE,36,3.1,4.6,34,0.00,CLR,OVC,0.00,WeatherDisplay:10.37,2013-04-03 08:39:00,
2013-04-03 04:42:00,40.9,14.6,30.21,NE,36,2.7,5.0,34,0.00,CLR,OVC,0.00,WeatherDisplay:10.37,2013-04-03 08:42:00,
2013-04-03 04:43:00,40.9,14.6,30.21,NE,36,3.0,5.0,34,0.00,CLR,OVC,0.00,WeatherDisplay:10.37,2013-04-03 08:43:00,
2013-04-03 04:48:00,40.8,14.6,30.22,NE,36,3.9,6.0,34,0.00,CLR,OVC,0.00,WeatherDisplay:10.37,2013-04-03 08:48:00,
2013-04-03 04:49:00,40.8,14.6,30.22,NE,36,4.5,5.8,34,0.00,CLR,OVC,0.00,WeatherDisplay:10.37,2013-04-03 08:49:00,
2013-04-03 04:50:00,40.8,14.6,30.22,NE,36,3.6,5.0,34,0.00,CLR,OVC,0.00,WeatherDisplay:10.37,2013-04-03 08:50:00,
2013-04-03 04:54:00,40.5,15.0,30.22,NE,36,3.5,5.8,35,0.00,CLR,OVC,0.00,WeatherDisplay:10.37,2013-04-03 08:54:00,
2013-04-03 04:55:00,40.5,15.0,30.22,NE,36,2.6,3.5,35,0.00,CLR,OVC,0.00,WeatherDisplay:10.37,2013-04-03 08:55:00,
2013-04-03 04:56:00,40.3,14.8,30.22,NE,36,1.5,3.5,35,0.00,CLR,OVC,0.00,WeatherDisplay:10.37,2013-04-03 08:56:00,
2013-04-03 04:58:00,40.2,14.7,30.22,NE,36,2.6,3.5,35,0.00,CLR,OVC,0.00,WeatherDisplay:10.37,2013-04-03 08:58:00,
2013-04-03 05:00:00,40.2,14.7,30.22,NE,36,3.1,3.5,35,0.00,CLR,OVC,0.00,WeatherDisplay:10.37,2013-04-03 09:00:00,
2013-04-03 05:01:00,40.2,14.7,30.22,NE,36,3.2,3.5,35,0.00,CLR,OVC,0.00,WeatherDisplay:10.37,2013-04-03 09:01:00,
2013-04-03 05:02:00,40.2,14.7,30.22,NE,36,3.7,4.0,35,0.00,CLR,OVC,0.00,WeatherDisplay:10.37,2013-04-03 09:02:00,
2013-04-03 05:04:00,40.1,14.6,30.22,NE,36,2.9,4.0,35,0.00,CLR,OVC,0.00,WeatherDisplay:10.37,2013-04-03 09:04:00,
2013-04-03 05:07:00,40.1,15.2,30.22,NE,36,3.0,4.0,36,0.00,CLR,OVC,0.00,WeatherDisplay:10.37,2013-04-03 09:07:00,
2013-04-03 05:09:00,39.8,15.6,30.22,NE,36,3.8,4.6,37,0.00,CLR,OVC,0.00,WeatherDisplay:10.37,2013-04-03 09:09:00,
2013-04-03 05:10:00,39.8,15.6,30.22,NE,36,3.6,5.0,37,0.00,CLR,OVC,0.00,WeatherDisplay:10.37,2013-04-03 09:10:00,
2013-04-03 05:12:00,39.6,16.0,30.22,NE,36,4.1,5.8,38,0.00,CLR,OVC,0.00,WeatherDisplay:10.37,2013-04-03 09:12:00,
2013-04-03 05:14:00,39.6,16.0,30.22,NE,36,4.8,4.8,38,0.00,CLR,OVC,0.00,WeatherDisplay:10.37,2013-04-03 09:14:00,
2013-04-03 05:17:00,39.3,15.8,30.22,NE,36,3.9,6.0,38,0.00,CLR,OVC,0.00,WeatherDisplay:10.37,2013-04-03 09:17:00,
2013-04-03 05:19:00,39.3,15.8,30.22,NE,36,3.9,5.8,38,0.00,CLR,OVC,0.00,WeatherDisplay:10.37,2013-04-03 09:19:00,
2013-04-03 05:22:00,39.3,16.4,30.22,NE,36,4.0,4.6,39,0.00,CLR,OVC,0.00,WeatherDisplay:10.37,2013-04-03 09:22:00,
2013-04-03 05:24:00,39.3,16.4,30.22,NE,36,4.3,5.8,39,0.00,CLR,OVC,0.00,WeatherDisplay:10.37,2013-04-03 09:24:00,
2013-04-03 05:25:00,39.3,16.4,30.22,NE,36,3.9,5.8,39,0.00,CLR,OVC,0.00,WeatherDisplay:10.37,2013-04-03 09:25:00,
2013-04-03 05:27:00,39.2,16.3,30.22,NE,36,3.6,5.0,39,0.00,CLR,OVC,0.00,WeatherDisplay:10.37,2013-04-03 09:27:00,
2013-04-03 05:31:00,38.9,16.6,30.22,NE,36,4.0,5.8,40,0.00,CLR,OVC,0.00,WeatherDisplay:10.37,2013-04-03 09:31:00,
2013-04-03 05:32:00,38.9,16.6,30.22,NE,36,3.5,5.8,40,0.00,CLR,OVC,0.00,WeatherDisplay:10.37,2013-04-03 09:32:00,
2013-04-03 05:34:00,38.8,16.5,30.22,NE,36,3.8,5.8,40,0.00,CLR,OVC,0.00,WeatherDisplay:10.37,2013-04-03 09:34:00,
2013-04-03 05:36:00,38.8,16.5,30.22,NE,36,3.8,5.8,40,0.00,CLR,OVC,0.00,WeatherDisplay:10.37,2013-04-03 09:36:00,
2013-04-03 05:39:00,38.6,16.9,30.23,NE,36,3.6,5.0,41,0.00,CLR,OVC,0.00,WeatherDisplay:10.37,2013-04-03 09:39:00,
2013-04-03 05:44:00,38.3,17.2,30.23,NE,36,4.2,5.0,42,0.00,CLR,OVC,0.00,WeatherDisplay:10.37,2013-04-03 09:44:00,
2013-04-03 05:45:00,38.3,17.2,30.23,NE,36,5.0,5.0,42,0.00,CLR,OVC,0.00,WeatherDisplay:10.37,2013-04-03 09:45:00,
2013-04-03 05:49:00,38.2,17.1,30.23,NNE,32,4.8,5.8,42,0.00,CLR,OVC,0.00,WeatherDisplay:10.37,2013-04-03 09:49:00,
2013-04-03 05:50:00,38.2,17.1,30.23,NNE,32,4.5,5.8,42,0.00,CLR,OVC,0.00,WeatherDisplay:10.37,2013-04-03 09:50:00,
2013-04-03 05:51:00,38.2,17.1,30.23,NNE,32,4.7,6.0,42,0.00,CLR,OVC,0.00,WeatherDisplay:10.37,2013-04-03 09:51:00,
2013-04-03 05:56:00,38.0,16.9,30.23,NNE,32,4.2,6.9,42,0.00,CLR,OVC,0.00,WeatherDisplay:10.37,2013-04-03 09:56:00,
2013-04-03 05:57:00,37.9,17.4,30.23,NNE,26,4.3,6.9,43,0.00,CLR,OVC,0.00,WeatherDisplay:10.37,2013-04-03 09:57:00,
2013-04-03 05:58:00,37.9,17.4,30.23,NNE,26,5.0,7.0,43,0.00,CLR,OVC,0.00,WeatherDisplay:10.37,2013-04-03 09:58:00,
2013-04-03 06:01:00,37.9,16.8,30.23,NNE,26,4.9,5.8,42,0.00,CLR,OVC,0.00,WeatherDisplay:10.37,2013-04-03 10:01:00,
2013-04-03 06:02:00,37.9,17.4,30.23,NNE,26,5.7,6.9,43,0.00,CLR,OVC,0.00,WeatherDisplay:10.37,2013-04-03 10:02:00,
2013-04-03 06:04:00,37.9,17.4,30.23,NNE,26,4.5,7.0,43,0.00,CLR,OVC,0.00,WeatherDisplay:10.37,2013-04-03 10:04:00,
2013-04-03 06:07:00,37.9,16.8,30.23,NNE,26,5.4,6.0,42,0.00,CLR,OVC,0.00,WeatherDisplay:10.37,2013-04-03 10:07:00,
2013-04-03 06:09:00,37.9,16.8,30.23,NNE,26,4.8,6.9,42,0.00,CLR,OVC,0.00,WeatherDisplay:10.37,2013-04-03 10:09:00,
2013-04-03 06:10:00,37.9,17.4,30.23,NNE,26,4.6,6.0,43,0.00,CLR,OVC,0.00,WeatherDisplay:10.37,2013-04-03 10:10:00,
2013-04-03 06:14:00,37.8,16.7,30.23,NNE,26,4.2,5.8,42,0.00,CLR,OVC,0.00,WeatherDisplay:10.37,2013-04-03 10:14:00,
2013-04-03 06:15:00,37.8,17.8,30.23,NNE,26,5.3,6.9,44,0.00,CLR,OVC,0.00,WeatherDisplay:10.37,2013-04-03 10:15:00,
2013-04-03 06:19:00,37.9,16.8,30.23,NNE,27,3.3,5.8,42,0.00,CLR,OVC,0.00,WeatherDisplay:10.37,2013-04-03 10:19:00,
2013-04-03 06:20:00,37.8,16.2,30.22,NNE,27,4.1,6.0,41,0.00,CLR,OVC,0.00,WeatherDisplay:10.37,2013-04-03 10:20:00,
2013-04-03 06:21:00,37.8,16.2,30.22,NNE,27,4.1,5.8,41,0.00,CLR,OVC,0.00,WeatherDisplay:10.37,2013-04-03 10:21:00,
2013-04-03 06:24:00,37.8,16.7,30.22,NNE,27,4.7,5.8,42,0.00,CLR,OVC,0.00,WeatherDisplay:10.37,2013-04-03 10:24:00,
2013-04-03 06:26:00,37.6,17.1,30.22,NNE,26,4.8,7.0,43,0.00,CLR,OVC,0.00,WeatherDisplay:10.37,2013-04-03 10:26:00,
2013-04-03 06:27:00,37.6,17.1,30.22,NNE,26,4.6,5.8,43,0.00,CLR,OVC,0.00,WeatherDisplay:10.37,2013-04-03 10:27:00,
2013-04-03 06:28:00,37.6,17.1,30.22,NNE,24,5.1,6.0,43,0.00,CLR,OVC,0.00,WeatherDisplay:10.37,2013-04-03 10:28:00,
2013-04-03 06:30:00,37.6,16.5,30.22,NNE,21,3.8,6.0,42,0.00,CLR,OVC,0.00,WeatherDisplay:10.37,2013-04-03 10:30:00,
2013-04-03 06:32:00,37.8,16.2,30.22,NNE,21,3.7,5.8,41,0.00,CLR,OVC,0.00,WeatherDisplay:10.37,2013-04-03 10:32:00,
2013-04-03 06:33:00,37.8,15.6,30.22,NNE,20,5.1,5.8,40,0.00,CLR,OVC,0.00,WeatherDisplay:10.37,2013-04-03 10:33:00,
2013-04-03 06:34:00,37.8,16.2,30.23,NNE,20,5.2,6.9,41,0.00,CLR,OVC,0.00,WeatherDisplay:10.37,2013-04-03 10:34:00,
2013-04-03 06:37:00,37.8,16.2,30.23,NNE,20,4.6,7.0,41,0.00,CLR,OVC,0.00,WeatherDisplay:10.37,2013-04-03 10:37:00,
2013-04-03 06:38:00,37.8,15.6,30.23,NNE,20,5.0,7.0,40,0.00,CLR,OVC,0.00,WeatherDisplay:10.37,2013-04-03 10:38:00,
2013-04-03 06:41:00,37.8,16.2,30.23,NNE,20,3.9,9.2,41,0.00,CLR,OVC,0.00,WeatherDisplay:10.37,2013-04-03 10:41:00,
2013-04-03 06:44:00,37.8,16.2,30.23,NNE,20,5.2,9.0,41,0.00,CLR,OVC,0.00,WeatherDisplay:10.37,2013-04-03 10:44:00,
2013-04-03 06:45:00,37.8,16.7,30.23,NNE,20,6.0,9.0,42,0.00,CLR,OVC,0.00,WeatherDisplay:10.37,2013-04-03 10:45:00,
2013-04-03 06:49:00,37.8,16.2,30.23,NNE,20,3.9,6.9,41,0.00,CLR,OVC,0.00,WeatherDisplay:10.37,2013-04-03 10:49:00,
2013-04-03 06:50:00,37.8,16.2,30.24,NNE,20,4.1,6.0,41,0.00,CLR,OVC,0.00,WeatherDisplay:10.37,2013-04-03 10:50:00,
2013-04-03 06:51:00,37.6,16.0,30.24,NNE,20,4.9,6.0,41,0.00,CLR,OVC,0.00,WeatherDisplay:10.37,2013-04-03 10:51:00,
2013-04-03 06:56:00,37.5,16.5,30.24,NNE,20,3.5,5.0,42,0.00,CLR,OVC,0.00,WeatherDisplay:10.37,2013-04-03 10:56:00,
2013-04-03 06:57:00,37.5,16.5,30.24,NNE,20,4.6,5.8,42,0.00,CLR,OVC,0.00,WeatherDisplay:10.37,2013-04-03 10:57:00,
2013-04-03 07:01:00,37.2,16.2,30.24,NNE,21,5.3,7.0,42,0.00,CLR,OVC,0.00,WeatherDisplay:10.37,2013-04-03 11:01:00,
2013-04-03 07:02:00,37.2,16.2,30.24,NNE,21,4.7,7.0,42,0.00,FEW,OVC,0.00,WeatherDisplay:10.37,2013-04-03 11:02:00,
2013-04-03 07:04:00,37.2,16.2,30.24,NNE,21,5.8,7.0,42,0.00,FEW,OVC,0.00,WeatherDisplay:10.37,2013-04-03 11:04:00,
2013-04-03 07:06:00,37.2,16.2,30.24,NNE,21,5.3,6.9,42,0.00,FEW,OVC,0.00,WeatherDisplay:10.37,2013-04-03 11:06:00,
2013-04-03 07:08:00,37.2,16.2,30.24,NNE,21,3.7,7.0,42,0.00,FEW,OVC,0.00,WeatherDisplay:10.37,2013-04-03 11:08:00,
2013-04-03 07:09:00,37.0,16.0,30.24,NNE,21,4.4,4.6,42,0.00,FEW,OVC,0.00,WeatherDisplay:10.37,2013-04-03 11:09:00,
2013-04-03 07:10:00,37.0,16.5,30.24,NNE,21,5.3,7.0,43,0.00,FEW,OVC,0.00,WeatherDisplay:10.37,2013-04-03 11:10:00,
2013-04-03 07:13:00,37.2,16.2,30.24,NNE,21,4.1,6.9,42,0.00,FEW,OVC,0.00,WeatherDisplay:10.37,2013-04-03 11:13:00,
2013-04-03 07:15:00,37.2,15.6,30.24,NNE,20,4.8,7.0,41,0.00,FEW,OVC,0.00,WeatherDisplay:10.37,2013-04-03 11:15:00,
2013-04-03 07:20:00,37.3,15.7,30.26,NNE,20,3.9,4.6,41,0.00,FEW,OVC,0.00,WeatherDisplay:10.37,2013-04-03 11:20:00,
2013-04-03 07:22:00,37.3,15.2,30.26,NNE,20,2.8,5.8,40,0.00,FEW,OVC,0.00,WeatherDisplay:10.37,2013-04-03 11:22:00,
2013-04-03 07:23:00,37.5,15.3,30.27,NNE,19,2.6,5.0,40,0.00,FEW,OVC,0.00,WeatherDisplay:10.37,2013-04-03 11:23:00,
2013-04-03 07:26:00,37.6,15.4,30.27,NNE,19,2.3,3.5,40,0.00,FEW,OVC,0.00,WeatherDisplay:10.37,2013-04-03 11:26:00,
2013-04-03 07:28:00,37.6,15.4,30.27,NNE,19,2.3,3.5,40,0.00,FEW,OVC,0.00,WeatherDisplay:10.37,2013-04-03 11:28:00,
2013-04-03 07:29:00,37.6,15.4,30.27,NNE,19,2.8,3.5,40,0.00,FEW,OVC,0.00,WeatherDisplay:10.37,2013-04-03 11:29:00,
2013-04-03 07:31:00,37.8,15.6,30.27,NNE,19,2.7,3.5,40,0.00,FEW,OVC,0.00,WeatherDisplay:10.37,2013-04-03 11:31:00,
2013-04-03 07:33:00,37.6,15.4,30.27,NNE,19,4.1,4.1,40,0.00,FEW,OVC,0.00,WeatherDisplay:10.37,2013-04-03 11:33:00,
2013-04-03 07:34:00,37.6,15.4,30.27,NNE,19,4.2,5.0,40,0.00,FEW,OVC,0.00,WeatherDisplay:10.37,2013-04-03 11:34:00,
2013-04-03 07:36:00,37.3,17.4,30.28,NNE,19,5.5,6.9,44,0.00,FEW,OVC,0.00,WeatherDisplay:10.37,2013-04-03 11:36:00,
2013-04-03 07:39:00,37.0,16.5,30.28,NNE,16,7.5,10.4,43,0.00,FEW,OVC,0.00,WeatherDisplay:10.37,2013-04-03 11:39:00,
2013-04-03 07:41:00,36.8,16.9,30.28,NNE,17,6.4,10.4,44,0.00,FEW,OVC,0.00,WeatherDisplay:10.37,2013-04-03 11:41:00,
2013-04-03 07:42:00,36.8,16.9,30.28,NNE,15,6.7,10.4,44,0.00,FEW,OVC,0.00,WeatherDisplay:10.37,2013-04-03 11:42:00,
2013-04-03 07:44:00,36.9,17.0,30.28,NNE,17,6.9,10.4,44,0.00,FEW,OVC,0.00,WeatherDisplay:10.37,2013-04-03 11:44:00,
2013-04-03 07:47:00,37.3,16.3,30.28,NNE,15,5.9,9.2,42,0.00,FEW,OVC,0.00,WeatherDisplay:10.37,2013-04-03 11:47:00,
2013-04-03 07:49:00,37.6,16.5,30.27,NNE,12,5.4,6.9,42,0.00,FEW,OVC,0.00,WeatherDisplay:10.37,2013-04-03 11:49:00,
2013-04-03 07:52:00,37.9,16.3,30.27,NNE,15,5.6,11.5,41,0.00,FEW,OVC,0.00,WeatherDisplay:10.37,2013-04-03 11:52:00,
2013-04-03 07:54:00,38.0,16.4,30.27,NNE,13,6.3,9.2,41,0.00,FEW,OVC,0.00,WeatherDisplay:10.37,2013-04-03 11:54:00,
2013-04-03 07:55:00,38.2,16.5,30.27,NNE,12,4.5,9.2,41,0.00,FEW,OVC,0.00,WeatherDisplay:10.37,2013-04-03 11:55:00,
2013-04-03 07:57:00,38.3,16.6,30.27,NNE,17,5.9,9.2,41,0.00,FEW,OVC,0.00,WeatherDisplay:10.37,2013-04-03 11:57:00,
2013-04-03 07:59:00,38.3,16.6,30.27,North,9,5.7,10.4,41,0.00,FEW,OVC,0.00,WeatherDisplay:10.37,2013-04-03 11:59:00,
2013-04-03 08:01:00,38.5,15.7,30.27,NNE,15,4.5,6.9,39,0.00,FEW,OVC,0.00,WeatherDisplay:10.37,2013-04-03 12:01:00,
2013-04-03 08:04:00,38.8,17.1,30.28,NNE,22,5.6,10.4,41,0.00,CLR,OVC,0.00,WeatherDisplay:10.37,2013-04-03 12:04:00,
2013-04-03 08:06:00,38.8,16.5,30.28,NNE,16,4.2,11.5,40,0.00,CLR,OVC,0.00,WeatherDisplay:10.37,2013-04-03 12:06:00,
2013-04-03 08:07:00,38.9,15.4,30.28,North,11,6.8,11.5,38,0.00,CLR,OVC,0.00,WeatherDisplay:10.37,2013-04-03 12:07:00,
2013-04-03 08:09:00,38.9,15.4,30.28,North,9,6.8,11.5,38,0.00,CLR,OVC,0.00,WeatherDisplay:10.37,2013-04-03 12:09:00,
2013-04-03 08:10:00,39.1,16.2,30.28,NNE,31,6.4,10.4,39,0.00,CLR,OVC,0.00,WeatherDisplay:10.37,2013-04-03 12:10:00,
2013-04-03 08:12:00,39.2,16.3,30.28,NNE,19,4.9,10.4,39,0.00,CLR,OVC,0.00,WeatherDisplay:10.37,2013-04-03 12:12:00,
2013-04-03 08:14:00,39.2,15.7,30.28,NNE,20,6.9,9.2,38,0.00,CLR,OVC,0.00,WeatherDisplay:10.37,2013-04-03 12:14:00,
2013-04-03 08:15:00,39.3,16.4,30.28,NNE,20,4.9,8.1,39,0.00,CLR,OVC,0.00,WeatherDisplay:10.37,2013-04-03 12:15:00,
2013-04-03 08:16:00,39.3,15.8,30.28,NNE,20,4.3,6.9,38,0.00,CLR,OVC,0.00,WeatherDisplay:10.37,2013-04-03 12:16:00,
2013-04-03 08:20:00,39.6,16.0,30.30,NNE,17,4.8,6.9,38,0.00,CLR,OVC,0.00,WeatherDisplay:10.37,2013-04-03 12:20:00,
2013-04-03 08:21:00,39.8,16.2,30.30,NNE,16,4.9,5.8,38,0.00,CLR,OVC,0.00,WeatherDisplay:10.37,2013-04-03 12:21:00,
2013-04-03 08:22:00,39.8,15.6,30.30,NNE,16,4.0,5.8,37,0.00,CLR,OVC,0.00,WeatherDisplay:10.37,2013-04-03 12:22:00,
2013-04-03 08:23:00,39.9,15.7,30.30,NNE,17,4.2,6.0,37,0.00,CLR,OVC,0.00,WeatherDisplay:10.37,2013-04-03 12:23:00,
2013-04-03 08:28:00,40.1,15.9,30.30,NNE,27,8.2,11.5,37,0.00,CLR,OVC,0.00,WeatherDisplay:10.37,2013-04-03 12:28:00,
2013-04-03 08:29:00,40.1,15.9,30.30,North,9,6.6,10.4,37,0.00,CLR,OVC,0.00,WeatherDisplay:10.37,2013-04-03 12:29:00,
2013-04-03 08:31:00,40.3,17.3,30.30,NNE,17,4.5,6.9,39,0.00,CLR,OVC,0.00,WeatherDisplay:10.37,2013-04-03 12:31:00,
2013-04-03 08:34:00,40.6,16.3,30.30,NNE,23,6.3,11.5,37,0.00,CLR,OVC,0.00,WeatherDisplay:10.37,2013-04-03 12:34:00,
2013-04-03 08:35:00,40.8,17.1,30.30,North,5,4.7,6.0,38,0.00,CLR,OVC,0.00,WeatherDisplay:10.37,2013-04-03 12:35:00,
2013-04-03 08:37:00,40.9,16.0,30.30,NNE,23,6.2,6.2,36,0.00,CLR,OVC,0.00,WeatherDisplay:10.37,2013-04-03 12:37:00,
2013-04-03 08:39:00,41.1,15.5,30.30,NNE,13,6.8,12.7,35,0.00,CLR,OVC,0.00,WeatherDisplay:10.37,2013-04-03 12:39:00,
2013-04-03 08:43:00,41.3,15.7,30.30,NNE,15,5.2,11.5,35,0.00,CLR,OVC,0.00,WeatherDisplay:10.37,2013-04-03 12:43:00,
2013-04-03 08:44:00,41.5,15.8,30.30,NNE,16,7.8,11.5,35,0.00,CLR,OVC,0.00,WeatherDisplay:10.37,2013-04-03 12:44:00,
2013-04-03 08:48:00,42.2,16.5,30.30,NNE,18,5.0,8.1,35,0.00,CLR,OVC,0.00,WeatherDisplay:10.37,2013-04-03 12:48:00,
2013-04-03 08:49:00,42.2,15.8,30.30,NNE,21,5.4,10.0,34,0.00,CLR,OVC,0.00,WeatherDisplay:10.37,2013-04-03 12:49:00,
2013-04-03 08:52:00,42.5,13.9,30.30,NE,36,13.2,19.6,31,0.00,CLR,OVC,0.00,WeatherDisplay:10.37,2013-04-03 12:52:00,
2013-04-03 08:54:00,42.6,15.5,30.30,North,10,11.0,14.0,33,0.00,CLR,OVC,0.00,WeatherDisplay:10.37,2013-04-03 12:54:00,
2013-04-03 08:55:00,42.6,15.5,30.30,NE,35,9.9,14.0,33,0.00,CLR,OVC,0.00,WeatherDisplay:10.37,2013-04-03 12:55:00,
2013-04-03 08:59:00,42.9,15.0,30.30,North,360,7.5,11.5,32,0.00,CLR,OVC,0.00,WeatherDisplay:10.37,2013-04-03 12:59:00,
2013-04-03 09:00:00,42.9,15.0,30.30,NNE,20,8.7,11.5,32,0.00,CLR,OVC,0.00,WeatherDisplay:10.37,2013-04-03 13:00:00,
2013-04-03 09:01:00,42.9,13.5,30.30,NNE,18,10.5,13.8,30,0.00,CLR,OVC,0.00,WeatherDisplay:10.37,2013-04-03 13:01:00,
2013-04-03 09:05:00,43.2,13.0,30.30,North,350,12.7,16.1,29,0.00,CLR,OVC,0.00,WeatherDisplay:10.37,2013-04-03 13:05:00,
2013-04-03 09:06:00,43.2,13.0,30.30,North,360,13.4,16.1,29,0.00,CLR,OVC,0.00,WeatherDisplay:10.37,2013-04-03 13:06:00,
2013-04-03 09:11:00,43.2,14.6,30.31,North,360,8.5,15.0,31,0.00,CLR,OVC,0.00,WeatherDisplay:10.37,2013-04-03 13:11:00,
2013-04-03 09:12:00,43.3,13.9,30.31,NNE,18,7.7,9.2,30,0.00,CLR,OVC,0.00,WeatherDisplay:10.37,2013-04-03 13:12:00,
2013-04-03 09:13:00,43.3,13.9,30.31,North,351,9.1,14.0,30,0.00,CLR,OVC,0.00,WeatherDisplay:10.37,2013-04-03 13:13:00,
2013-04-03 09:15:00,43.6,14.2,30.31,North,360,6.6,10.4,30,0.00,CLR,OVC,0.00,WeatherDisplay:10.37,2013-04-03 13:15:00,
2013-04-03 09:18:00,43.8,13.6,30.31,North,350,8.6,12.7,29,0.00,CLR,OVC,0.00,WeatherDisplay:10.37,2013-04-03 13:18:00,
2013-04-03 09:19:00,43.9,14.4,30.31,North,360,7.2,11.5,30,0.00,CLR,OVC,0.00,WeatherDisplay:10.37,2013-04-03 13:19:00,
2013-04-03 09:23:00,43.8,12.8,30.31,North,360,14.0,15.0,28,0.00,CLR,OVC,0.00,WeatherDisplay:10.37,2013-04-03 13:23:00,
2013-04-03 09:24:00,43.8,12.8,30.31,NNE,24,14.1,19.6,28,0.00,CLR,OVC,0.00,WeatherDisplay:10.37,2013-04-03 13:24:00,
2013-04-03 09:26:00,43.6,12.6,30.31,NNE,13,11.4,16.1,28,0.00,CLR,OVC,0.00,WeatherDisplay:10.37,2013-04-03 13:26:00,
2013-04-03 09:28:00,43.6,14.2,30.31,North,10,10.3,16.1,30,0.00,CLR,OVC,0.00,WeatherDisplay:10.37,2013-04-03 13:28:00,
2013-04-03 09:31:00,43.8,13.6,30.31,NNE,15,11.1,15.0,29,0.00,CLR,OVC,0.00,WeatherDisplay:10.37,2013-04-03 13:31:00,
2013-04-03 09:33:00,44.1,14.6,30.31,North,360,10.1,12.7,30,0.00,CLR,OVC,0.00,WeatherDisplay:10.37,2013-04-03 13:33:00,
2013-04-03 09:34:00,44.1,14.6,30.31,NNE,27,9.3,12.7,30,0.00,CLR,OVC,0.00,WeatherDisplay:10.37,2013-04-03 13:34:00,
2013-04-03 09:35:00,44.1,13.0,30.31,NNE,16,8.5,11.5,28,0.00,CLR,OVC,0.00,WeatherDisplay:10.37,2013-04-03 13:35:00,
2013-04-03 09:39:00,44.1,13.8,30.32,North,351,8.2,13.8,29,0.00,CLR,OVC,0.00,WeatherDisplay:10.37,2013-04-03 13:39:00,
2013-04-03 09:41:00,44.2,13.9,30.32,NNW,327,8.3,11.5,29,0.00,CLR,OVC,0.00,WeatherDisplay:10.37,2013-04-03 13:41:00,
2013-04-03 09:44:00,44.6,14.3,30.32,NE,34,7.3,10.4,29,0.00,CLR,OVC,0.00,WeatherDisplay:10.37,2013-04-03 13:44:00,
2013-04-03 09:45:00,44.6,13.5,30.32,North,5,6.8,11.5,28,0.00,CLR,OVC,0.00,WeatherDisplay:10.37,2013-04-03 13:45:00,
2013-04-03 09:46:00,44.6,13.5,30.32,NNE,18,5.2,11.5,28,0.00,CLR,OVC,0.00,WeatherDisplay:10.37,2013-04-03 13:46:00,
2013-04-03 09:47:00,44.8,13.6,30.32,North,350,4.5,6.9,28,0.00,CLR,OVC,0.00,WeatherDisplay:10.37,2013-04-03 13:47:00,
2013-04-03 09:51:00,44.9,13.7,30.32,NNE,14,6.6,11.5,28,0.00,CLR,OVC,0.00,WeatherDisplay:10.37,2013-04-03 13:51:00,
2013-04-03 09:52:00,44.9,13.7,30.32,NNW,348,6.4,13.0,28,0.00,CLR,OVC,0.00,WeatherDisplay:10.37,2013-04-03 13:52:00,
2013-04-03 09:56:00,44.6,13.5,30.32,NE,35,11.9,13.8,28,0.00,CLR,OVC,0.00,WeatherDisplay:10.37,2013-04-03 13:56:00,
2013-04-03 09:57:00,44.6,13.5,30.32,NNE,28,10.9,13.8,28,0.00,CLR,OVC,0.00,WeatherDisplay:10.37,2013-04-03 13:57:00,
2013-04-03 09:58:00,44.6,13.5,30.32,NNE,24,10.5,12.0,28,0.00,CLR,OVC,0.00,WeatherDisplay:10.37,2013-04-03 13:58:00,
2013-04-03 10:02:00,44.6,13.5,30.32,NNE,13,7.3,11.5,28,0.00,CLR,OVC,0.00,WeatherDisplay:10.37,2013-04-03 14:02:00,
2013-04-03 10:04:00,44.8,13.6,30.32,NNE,15,7.3,11.5,28,0.00,CLR,OVC,0.00,WeatherDisplay:10.37,2013-04-03 14:04:00,
2013-04-03 10:07:00,45.2,14.0,30.32,North,360,6.6,11.5,28,0.00,CLR,OVC,0.00,WeatherDisplay:10.37,2013-04-03 14:07:00,
2013-04-03 10:08:00,45.2,14.0,30.32,NNE,26,9.4,11.5,28,0.00,CLR,OVC,0.00,WeatherDisplay:10.37,2013-04-03 14:08:00,
2013-04-03 10:09:00,45.2,14.0,30.32,NNE,30,10.0,11.5,28,0.00,CLR,OVC,0.00,WeatherDisplay:10.37,2013-04-03 14:09:00,
2013-04-03 10:10:00,45.2,14.0,30.32,North,9,9.9,12.0,28,0.00,CLR,OVC,0.00,WeatherDisplay:10.37,2013-04-03 14:10:00,
2013-04-03 10:15:00,45.5,13.4,30.32,North,360,6.4,10.4,27,0.00,CLR,OVC,0.00,WeatherDisplay:10.37,2013-04-03 14:15:00,
2013-04-03 10:16:00,45.5,13.4,30.32,North,360,9.5,11.0,27,0.00,CLR,OVC,0.00,WeatherDisplay:10.37,2013-04-03 14:16:00,
2013-04-03 10:17:00,45.5,14.2,30.32,North,351,10.7,11.5,28,0.00,CLR,OVC,0.00,WeatherDisplay:10.37,2013-04-03 14:17:00,
2013-04-03 10:20:00,45.5,13.4,30.32,North,360,8.4,11.5,27,0.00,CLR,OVC,0.00,WeatherDisplay:10.37,2013-04-03 14:20:00,
2013-04-03 10:21:00,45.5,13.4,30.32,North,360,8.4,13.0,27,0.00,CLR,OVC,0.00,WeatherDisplay:10.37,2013-04-03 14:21:00,
2013-04-03 10:23:00,45.5,13.4,30.32,NNW,344,6.9,13.8,27,0.00,CLR,OVC,0.00,WeatherDisplay:10.37,2013-04-03 14:23:00,
2013-04-03 10:25:00,45.5,14.2,30.32,North,5,4.0,7.0,28,0.00,CLR,OVC,0.00,WeatherDisplay:10.37,2013-04-03 14:25:00,
2013-04-03 10:27:00,46.0,17.0,30.32,North,350,4.9,8.1,31,0.00,CLR,OVC,0.00,WeatherDisplay:10.37,2013-04-03 14:27:00,
2013-04-03 10:29:00,46.2,14.0,30.32,North,360,8.4,12.7,27,0.00,CLR,OVC,0.00,WeatherDisplay:10.37,2013-04-03 14:29:00,
2013-04-03 10:30:00,46.2,14.0,30.32,North,360,5.7,10.4,27,0.00,CLR,OVC,0.00,WeatherDisplay:10.37,2013-04-03 14:30:00,
2013-04-03 10:31:00,46.1,13.9,30.32,NE,36,5.3,11.5,27,0.00,CLR,OVC,0.00,WeatherDisplay:10.37,2013-04-03 14:31:00,
2013-04-03 10:32:00,46.1,13.9,30.32,NE,34,8.6,10.4,27,0.00,CLR,OVC,0.00,WeatherDisplay:10.37,2013-04-03 14:32:00,
2013-04-03 10:35:00,46.4,16.6,30.31,NE,48,5.1,10.4,30,0.00,CLR,OVC,0.00,WeatherDisplay:10.37,2013-04-03 14:35:00,
2013-04-03 10:37:00,46.5,14.3,30.31,NE,43,8.7,12.0,27,0.00,CLR,OVC,0.00,WeatherDisplay:10.37,2013-04-03 14:37:00,
2013-04-03 10:38:00,46.4,13.3,30.31,NNE,25,6.8,11.5,26,0.00,CLR,OVC,0.00,WeatherDisplay:10.37,2013-04-03 14:38:00,
2013-04-03 10:39:00,46.2,13.1,30.31,NE,55,2.5,11.5,26,0.00,CLR,OVC,0.00,WeatherDisplay:10.37,2013-04-03 14:39:00,
2013-04-03 10:42:00,46.1,13.9,30.31,NNW,347,7.3,13.0,27,0.00,CLR,OVC,0.00,WeatherDisplay:10.37,2013-04-03 14:42:00,
2013-04-03 10:43:00,46.1,14.8,30.31,NW,321,12.0,13.8,28,0.00,CLR,OVC,0.00,WeatherDisplay:10.37,2013-04-03 14:43:00,
2013-04-03 10:44:00,46.2,14.8,30.31,NNW,340,9.2,12.7,28,0.00,CLR,OVC,0.00,WeatherDisplay:10.37,2013-04-03 14:44:00,
2013-04-03 10:45:00,46.2,14.8,30.31,North,2,10.0,14.0,28,0.00,CLR,OVC,0.00,WeatherDisplay:10.37,2013-04-03 14:45:00,
2013-04-03 10:48:00,46.4,15.0,30.31,NE,42,3.4,9.2,28,0.00,CLR,OVC,0.00,WeatherDisplay:10.37,2013-04-03 14:48:00,
2013-04-03 10:49:00,46.5,15.1,30.31,NE,53,7.0,10.4,28,0.00,CLR,OVC,0.00,WeatherDisplay:10.37,2013-04-03 14:49:00,
2013-04-03 10:50:00,46.8,15.4,30.31,NNE,29,10.2,12.0,28,0.00,CLR,OVC,0.00,WeatherDisplay:10.37,2013-04-03 14:50:00,
2013-04-03 10:54:00,46.7,14.4,30.30,NE,53,5.7,9.2,27,0.00,CLR,OVC,0.00,WeatherDisplay:10.37,2013-04-03 14:54:00,
2013-04-03 10:55:00,46.7,14.4,30.30,NE,53,3.0,6.9,27,0.00,CLR,OVC,0.00,WeatherDisplay:10.37,2013-04-03 14:55:00,
2013-04-03 10:56:00,46.7,14.4,30.30,NE,53,2.3,6.9,27,0.00,CLR,OVC,0.00,WeatherDisplay:10.37,2013-04-03 14:56:00,
2013-04-03 10:57:00,46.7,14.4,30.30,NNE,14,4.2,13.0,27,0.00,CLR,OVC,0.00,WeatherDisplay:10.37,2013-04-03 14:57:00,
2013-04-03 11:01:00,46.5,12.5,30.30,NNW,340,6.5,13.8,25,0.00,CLR,OVC,0.00,WeatherDisplay:10.37,2013-04-03 15:01:00,
2013-04-03 11:02:00,46.5,13.4,30.30,North,351,4.5,13.8,26,0.00,CLR,OVC,0.00,WeatherDisplay:10.37,2013-04-03 15:02:00,
2013-04-03 11:03:00,46.8,15.4,30.30,NNW,344,6.8,10.4,28,0.00,CLR,OVC,0.00,WeatherDisplay:10.37,2013-04-03 15:03:00,
2013-04-03 11:07:00,47.1,13.9,30.30,NNE,24,12.0,16.0,26,0.00,CLR,OVC,0.00,WeatherDisplay:10.37,2013-04-03 15:07:00,
2013-04-03 11:08:00,47.4,15.9,30.30,NNW,333,10.4,18.4,28,0.00,CLR,OVC,0.00,WeatherDisplay:10.37,2013-04-03 15:08:00,
2013-04-03 11:09:00,47.6,14.3,30.30,NE,40,7.7,12.7,26,0.00,CLR,OVC,0.00,WeatherDisplay:10.37,2013-04-03 15:09:00,
2013-04-03 11:10:00,47.4,13.3,30.30,North,349,7.8,12.7,25,0.00,CLR,OVC,0.00,WeatherDisplay:10.37,2013-04-03 15:10:00,
2013-04-03 11:15:00,47.4,13.3,30.30,East,92,9.2,12.7,25,0.00,CLR,OVC,0.00,WeatherDisplay:10.37,2013-04-03 15:15:00,
2013-04-03 11:16:00,47.4,14.2,30.30,NE,53,5.6,11.5,26,0.00,CLR,OVC,0.00,WeatherDisplay:10.37,2013-04-03 15:16:00,
2013-04-03 11:18:00,47.7,14.4,30.30,NW,304,6.6,12.7,26,0.00,CLR,OVC,0.00,WeatherDisplay:10.37,2013-04-03 15:18:00,
2013-04-03 11:20:00,48.0,15.6,30.30,NNE,20,8.4,10.4,27,0.00,CLR,OVC,0.00,WeatherDisplay:10.37,2013-04-03 15:20:00,
2013-04-03 11:22:00,48.3,14.1,30.30,North,351,7.1,12.0,25,0.00,CLR,OVC,0.00,WeatherDisplay:10.37,2013-04-03 15:22:00,
2013-04-03 11:24:00,48.2,14.0,30.30,NNE,22,8.0,11.5,25,0.00,CLR,OVC,0.00,WeatherDisplay:10.37,2013-04-03 15:24:00,
2013-04-03 11:27:00,48.2,14.0,30.30,NW,305,5.5,9.0,25,0.00,CLR,OVC,0.00,WeatherDisplay:10.37,2013-04-03 15:27:00,
2013-04-03 11:30:00,48.6,18.5,30.30,NNW,347,7.0,15.0,30,0.00,CLR,OVC,0.00,WeatherDisplay:10.37,2013-04-03 15:30:00,
2013-04-03 11:32:00,48.6,13.4,30.30,North,360,8.2,11.5,24,0.00,CLR,OVC,0.00,WeatherDisplay:10.37,2013-04-03 15:32:00,
2013-04-03 11:33:00,48.6,13.4,30.30,North,360,5.1,11.5,24,0.00,CLR,OVC,0.00,WeatherDisplay:10.37,2013-04-03 15:33:00,
2013-04-03 11:34:00,48.3,14.1,30.30,NNE,16,8.3,10.4,25,0.00,CLR,OVC,0.00,WeatherDisplay:10.37,2013-04-03 15:34:00,
2013-04-03 11:36:00,48.2,15.7,30.30,North,360,3.0,11.5,27,0.00,CLR,OVC,0.00,WeatherDisplay:10.37,2013-04-03 15:36:00,
2013-04-03 11:38:00,48.2,14.9,30.30,North,360,9.5,13.0,26,0.00,CLR,OVC,0.00,WeatherDisplay:10.37,2013-04-03 15:38:00,
2013-04-03 11:39:00,48.2,14.0,30.30,North,350,9.9,12.7,25,0.00,CLR,OVC,0.00,WeatherDisplay:10.37,2013-04-03 15:39:00,
2013-04-03 11:41:00,47.9,13.7,30.30,NNW,331,4.6,11.5,25,0.00,CLR,OVC,0.00,WeatherDisplay:10.37,2013-04-03 15:41:00,
2013-04-03 11:42:00,47.9,13.7,30.30,NNW,331,1.0,5.8,25,0.00,CLR,OVC,0.00,WeatherDisplay:10.37,2013-04-03 15:42:00,
2013-04-03 11:44:00,48.0,14.7,30.30,NNE,15,3.2,4.0,26,0.00,CLR,OVC,0.00,WeatherDisplay:10.37,2013-04-03 15:44:00,
2013-04-03 11:46:00,48.2,14.0,30.30,NNE,25,5.1,13.8,25,0.00,CLR,OVC,0.00,WeatherDisplay:10.37,2013-04-03 15:46:00,
2013-04-03 11:49:00,48.3,14.1,30.30,NNE,22,4.2,8.0,25,0.00,CLR,OVC,0.00,WeatherDisplay:10.37,2013-04-03 15:49:00,
2013-04-03 11:50:00,48.6,15.2,30.29,NNW,338,9.2,13.8,26,0.00,CLR,OVC,0.00,WeatherDisplay:10.37,2013-04-03 15:50:00,
2013-04-03 11:52:00,48.6,13.4,30.29,NW,322,10.9,12.7,24,0.00,CLR,OVC,0.00,WeatherDisplay:10.37,2013-04-03 15:52:00,
2013-04-03 11:55:00,48.3,14.1,30.29,NW,306,6.9,13.0,25,0.00,CLR,OVC,0.00,WeatherDisplay:10.37,2013-04-03 15:55:00,
2013-04-03 11:57:00,48.0,13.8,30.29,NW,304,9.3,13.8,25,0.00,CLR,OVC,0.00,WeatherDisplay:10.37,2013-04-03 15:57:00,
2013-04-03 12:00:00,47.9,13.7,30.29,NW,312,1.0,14.0,25,0.00,CLR,OVC,0.00,WeatherDisplay:10.37,2013-04-03 16:00:00,
2013-04-03 12:02:00,48.0,13.8,30.29,WNW,300,2.5,3.5,25,0.00,CLR,OVC,0.00,WeatherDisplay:10.37,2013-04-03 16:02:00,
2013-04-03 12:05:00,48.3,14.1,30.28,North,10,6.7,10.4,25,0.00,CLR,OVC,0.00,WeatherDisplay:10.37,2013-04-03 16:05:00,
2013-04-03 12:06:00,48.5,15.1,30.28,North,360,3.8,10.4,26,0.00,CLR,OVC,0.00,WeatherDisplay:10.37,2013-04-03 16:06:00,
2013-04-03 12:07:00,48.8,15.4,30.29,NNE,31,5.8,11.5,26,0.00,CLR,OVC,0.00,WeatherDisplay:10.37,2013-04-03 16:07:00,
2013-04-03 12:10:00,48.8,15.4,30.29,East,84,10.5,12.0,26,0.00,CLR,OVC,0.00,WeatherDisplay:10.37,2013-04-03 16:10:00,
2013-04-03 12:11:00,48.8,15.4,30.29,ENE,61,9.9,12.0,26,0.00,CLR,OVC,0.00,WeatherDisplay:10.37,2013-04-03 16:11:00,
2013-04-03 12:13:00,48.8,15.4,30.29,NNE,15,8.3,12.7,26,0.00,CLR,OVC,0.00,WeatherDisplay:10.37,2013-04-03 16:13:00,
2013-04-03 12:17:00,49.1,14.7,30.29,North,351,8.2,14.0,25,0.00,CLR,OVC,0.00,WeatherDisplay:10.37,2013-04-03 16:17:00,
2013-04-03 12:18:00,49.1,14.7,30.29,North,351,11.1,15.0,25,0.00,CLR,OVC,0.00,WeatherDisplay:10.37,2013-04-03 16:18:00,
2013-04-03 12:19:00,48.9,14.6,30.28,NNE,17,10.7,16.1,25,0.00,CLR,OVC,0.00,WeatherDisplay:10.37,2013-04-03 16:19:00,
2013-04-03 12:22:00,48.8,13.5,30.28,NE,40,3.7,10.4,24,0.00,CLR,OVC,0.00,WeatherDisplay:10.37,2013-04-03 16:22:00,
2013-04-03 12:24:00,48.8,14.5,30.28,NE,40,0.2,4.6,25,0.00,CLR,OVC,0.00,WeatherDisplay:10.37,2013-04-03 16:24:00,
2013-04-03 12:26:00,49.1,17.3,30.28,WNW,283,0.9,4.0,28,0.00,CLR,OVC,0.00,WeatherDisplay:10.37,2013-04-03 16:26:00,
2013-04-03 12:28:00,49.5,15.1,30.28,NE,56,5.1,12.0,25,0.00,CLR,OVC,0.00,WeatherDisplay:10.37,2013-04-03 16:28:00,
2013-04-03 12:29:00,49.8,15.3,30.28,NE,37,9.5,13.0,25,0.00,CLR,OVC,0.00,WeatherDisplay:10.37,2013-04-03 16:29:00,
2013-04-03 12:30:00,49.8,15.3,30.28,NE,40,11.1,13.0,25,0.00,CLR,OVC,0.00,WeatherDisplay:10.37,2013-04-03 16:30:00,
2013-04-03 12:32:00,49.4,14.1,30.28,NE,44,4.4,6.0,24,0.00,CLR,OVC,0.00,WeatherDisplay:10.37,2013-04-03 16:32:00,
2013-04-03 12:35:00,49.4,15.0,30.28,ENE,59,4.8,7.0,25,0.00,CLR,OVC,0.00,WeatherDisplay:10.37,2013-04-03 16:35:00,
2013-04-03 12:36:00,49.4,15.0,30.28,ENE,62,4.4,5.8,25,0.00,CLR,OVC,0.00,WeatherDisplay:10.37,2013-04-03 16:36:00,
2013-04-03 12:40:00,49.8,18.0,30.28,East,98,4.4,8.1,28,0.00,CLR,OVC,0.00,WeatherDisplay:10.37,2013-04-03 16:40:00,
2013-04-03 12:41:00,49.9,16.3,30.28,East,93,4.0,8.1,26,0.00,CLR,OVC,0.00,WeatherDisplay:10.37,2013-04-03 16:41:00,
2013-04-03 12:42:00,49.9,15.4,30.28,East,90,3.7,4.6,25,0.00,CLR,OVC,0.00,WeatherDisplay:10.37,2013-04-03 16:42:00,
2013-04-03 12:43:00,49.9,15.4,30.28,East,86,3.7,4.6,25,0.00,CLR,OVC,0.00,WeatherDisplay:10.37,2013-04-03 16:43:00,
2013-04-03 12:47:00,49.9,15.4,30.28,NNE,19,2.2,4.6,25,0.00,CLR,OVC,0.00,WeatherDisplay:10.37,2013-04-03 16:47:00,
2013-04-03 12:48:00,49.9,15.4,30.28,NNE,19,3.1,4.6,25,0.00,CLR,OVC,0.00,WeatherDisplay:10.37,2013-04-03 16:48:00,
2013-04-03 12:52:00,50.5,16.8,30.28,NNW,332,6.6,12.0,26,0.00,CLR,OVC,0.00,WeatherDisplay:10.37,2013-04-03 16:52:00,
2013-04-03 12:54:00,50.5,16.8,30.28,NNW,346,7.6,12.7,26,0.00,CLR,OVC,0.00,WeatherDisplay:10.37,2013-04-03 16:54:00,
2013-04-03 12:56:00,50.7,15.2,30.28,North,360,8.8,10.4,24,0.00,CLR,OVC,0.00,WeatherDisplay:10.37,2013-04-03 16:56:00,
2013-04-03 12:59:00,50.4,14.9,30.27,NNW,329,7.6,11.5,24,0.00,CLR,OVC,0.00,WeatherDisplay:10.37,2013-04-03 16:59:00,
2013-04-03 13:00:00,50.2,14.7,30.27,NW,323,8.8,14.0,24,0.00,CLR,OVC,0.00,WeatherDisplay:10.37,2013-04-03 17:00:00,
2013-04-03 13:03:00,49.9,15.4,30.27,WNW,289,8.1,11.5,25,0.00,CLR,OVC,0.00,WeatherDisplay:10.37,2013-04-03 17:03:00,
2013-04-03 13:04:00,49.9,16.3,30.28,WNW,301,4.2,7.0,26,0.00,CLR,OVC,0.00,WeatherDisplay:10.37,2013-04-03 17:04:00,
2013-04-03 13:05:00,50.1,17.4,30.28,NW,306,3.1,6.9,27,0.00,CLR,OVC,0.00,WeatherDisplay:10.37,2013-04-03 17:05:00,
2013-04-03 13:06:00,50.2,15.7,30.28,NW,306,1.9,6.9,25,0.00,CLR,OVC,0.00,WeatherDisplay:10.37,2013-04-03 17:06:00,
2013-04-03 13:08:00,50.5,15.9,30.28,North,351,3.0,6.9,25,0.00,CLR,OVC,0.00,WeatherDisplay:10.37,2013-04-03 17:08:00,
2013-04-03 13:11:00,50.8,18.0,30.28,NW,317,5.0,5.0,27,0.00,CLR,OVC,0.00,WeatherDisplay:10.37,2013-04-03 17:11:00,
2013-04-03 13:12:00,51.3,18.4,30.28,NW,315,6.5,11.5,27,0.00,CLR,OVC,0.00,WeatherDisplay:10.37,2013-04-03 17:12:00,
2013-04-03 13:15:00,51.3,15.7,30.28,WNW,284,6.5,12.0,24,0.00,CLR,OVC,0.00,WeatherDisplay:10.37,2013-04-03 17:15:00,
2013-04-03 13:16:00,51.3,18.4,30.28,West,275,10.0,11.5,27,0.00,CLR,OVC,0.00,WeatherDisplay:10.37,2013-04-03 17:16:00,
2013-04-03 13:17:00,51.4,20.2,30.28,NE,44,6.5,11.5,29,0.00,CLR,OVC,0.00,WeatherDisplay:10.37,2013-04-03 17:17:00,
2013-04-03 13:19:00,51.3,14.7,30.27,SE,130,3.7,6.9,23,0.00,CLR,OVC,0.00,WeatherDisplay:10.37,2013-04-03 17:19:00,
2013-04-03 13:20:00,51.1,14.5,30.27,SE,130,2.6,6.9,23,0.00,CLR,OVC,0.00,WeatherDisplay:10.37,2013-04-03 17:20:00,
2013-04-03 13:22:00,51.1,16.4,30.27,East,101,4.6,7.0,25,0.00,CLR,OVC,0.00,WeatherDisplay:10.37,2013-04-03 17:22:00,
2013-04-03 13:23:00,51.1,15.5,30.27,East,101,5.5,6.0,24,0.00,CLR,OVC,0.00,WeatherDisplay:10.37,2013-04-03 17:23:00,
2013-04-03 13:24:00,51.4,16.7,30.27,ESE,109,5.9,8.1,25,0.00,CLR,OVC,0.00,WeatherDisplay:10.37,2013-04-03 17:24:00,
2013-04-03 13:25:00,51.4,15.8,30.27,ESE,109,5.7,8.1,24,0.00,CLR,OVC,0.00,WeatherDisplay:10.37,2013-04-03 17:25:00,
2013-04-03 13:28:00,51.7,17.0,30.27,NE,53,8.4,16.1,25,0.00,CLR,OVC,0.00,WeatherDisplay:10.37,2013-04-03 17:28:00,
2013-04-03 13:29:00,52.0,17.2,30.27,West,265,14.9,21.9,25,0.00,CLR,OVC,0.00,WeatherDisplay:10.37,2013-04-03 17:29:00,
2013-04-03 13:30:00,52.3,18.4,30.27,NNW,331,8.4,21.9,26,0.00,CLR,OVC,0.00,WeatherDisplay:10.37,2013-04-03 17:30:00,
2013-04-03 13:31:00,52.3,15.5,30.27,North,10,5.8,21.9,23,0.00,CLR,OVC,0.00,WeatherDisplay:10.37,2013-04-03 17:31:00,
2013-04-03 13:36:00,51.6,15.9,30.26,North,350,3.7,13.0,24,0.00,CLR,OVC,0.00,WeatherDisplay:10.37,2013-04-03 17:36:00,
2013-04-03 13:37:00,51.4,15.8,30.26,NNE,15,6.3,12.7,24,0.00,CLR,OVC,0.00,WeatherDisplay:10.37,2013-04-03 17:37:00,
2013-04-03 13:38:00,51.3,15.7,30.26,NNW,331,0.9,6.9,24,0.00,CLR,OVC,0.00,WeatherDisplay:10.37,2013-04-03 17:38:00,
2013-04-03 13:42:00,51.3,16.6,30.26,NW,309,4.6,9.2,25,0.00,CLR,OVC,0.00,WeatherDisplay:10.37,2013-04-03 17:42:00,
2013-04-03 13:45:00,51.6,16.9,30.26,North,360,4.5,6.0,25,0.00,CLR,OVC,0.00,WeatherDisplay:10.37,2013-04-03 17:45:00,
2013-04-03 13:47:00,51.7,16.0,30.26,North,360,2.4,3.5,24,0.00,CLR,OVC,0.00,WeatherDisplay:10.37,2013-04-03 17:47:00,
2013-04-03 13:52:00,51.9,16.2,30.26,NNW,331,6.1,11.5,24,0.00,CLR,OVC,0.00,WeatherDisplay:10.37,2013-04-03 17:52:00,
2013-04-03 13:53:00,51.7,16.0,30.26,NNW,336,4.4,6.9,24,0.00,CLR,OVC,0.00,WeatherDisplay:10.37,2013-04-03 17:53:00,
2013-04-03 13:58:00,51.9,15.2,30.26,NW,318,8.5,12.7,23,0.00,CLR,OVC,0.00,WeatherDisplay:10.37,2013-04-03 17:58:00,
2013-04-03 14:00:00,51.9,17.1,30.26,WNW,298,5.4,10.4,25,0.00,CLR,OVC,0.00,WeatherDisplay:10.37,2013-04-03 18:00:00,
2013-04-03 14:01:00,51.9,18.0,30.26,WNW,285,5.2,5.8,26,0.00,CLR,OVC,0.00,WeatherDisplay:10.37,2013-04-03 18:01:00,
2013-04-03 14:02:00,51.9,16.2,30.26,West,276,0.7,3.5,24,0.00,CLR,OVC,0.00,WeatherDisplay:10.37,2013-04-03 18:02:00,
2013-04-03 14:06:00,52.2,15.5,30.25,SW,236,2.3,5.8,23,0.00,CLR,OVC,0.00,WeatherDisplay:10.37,2013-04-03 18:06:00,
2013-04-03 14:07:00,52.3,17.5,30.25,SW,236,1.8,4.6,25,0.00,CLR,OVC,0.00,WeatherDisplay:10.37,2013-04-03 18:07:00,
2013-04-03 14:08:00,52.6,17.7,30.26,SW,236,1.1,3.0,25,0.00,CLR,OVC,0.00,WeatherDisplay:10.37,2013-04-03 18:08:00,
2013-04-03 14:10:00,52.9,17.0,30.26,SW,235,3.6,5.0,24,0.00,CLR,OVC,0.00,WeatherDisplay:10.37,2013-04-03 18:10:00,
2013-04-03 14:12:00,52.9,16.1,30.26,SSW,201,4.4,9.2,23,0.00,CLR,OVC,0.00,WeatherDisplay:10.37,2013-04-03 18:12:00,
2013-04-03 14:13:00,52.8,16.0,30.26,SSW,213,4.4,9.2,23,0.00,CLR,OVC,0.00,WeatherDisplay:10.37,2013-04-03 18:13:00,
2013-04-03 14:17:00,52.9,17.0,30.26,SW,217,0.0,5.8,24,0.00,CLR,OVC,0.00,WeatherDisplay:10.37,2013-04-03 18:17:00,
2013-04-03 14:18:00,53.1,18.2,30.26,NNW,329,2.5,4.6,25,0.00,CLR,OVC,0.00,WeatherDisplay:10.37,2013-04-03 18:18:00,
2013-04-03 14:20:00,53.1,14.1,30.25,NW,308,4.9,6.9,21,0.00,CLR,OVC,0.00,WeatherDisplay:10.37,2013-04-03 18:20:00,
2013-04-03 14:21:00,52.9,16.1,30.25,NW,309,2.9,6.9,23,0.00,CLR,OVC,0.00,WeatherDisplay:10.37,2013-04-03 18:21:00,
2013-04-03 14:22:00,52.9,16.1,30.25,NW,309,0.0,6.9,23,0.00,CLR,OVC,0.00,WeatherDisplay:10.37,2013-04-03 18:22:00,
2013-04-03 14:26:00,53.3,17.4,30.25,NW,310,10.4,13.0,24,0.00,CLR,OVC,0.00,WeatherDisplay:10.37,2013-04-03 18:26:00,
2013-04-03 14:27:00,53.2,17.3,30.25,WNW,296,10.8,14.0,24,0.00,CLR,OVC,0.00,WeatherDisplay:10.37,2013-04-03 18:27:00,
2013-04-03 14:28:00,53.1,16.2,30.25,NW,325,5.5,14.0,23,0.00,CLR,OVC,0.00,WeatherDisplay:10.37,2013-04-03 18:28:00,
2013-04-03 14:31:00,52.9,16.1,30.25,NW,321,5.6,11.5,23,0.00,CLR,OVC,0.00,WeatherDisplay:10.37,2013-04-03 18:31:00,
2013-04-03 14:33:00,52.8,16.0,30.25,NNW,339,6.7,11.5,23,0.00,CLR,OVC,0.00,WeatherDisplay:10.37,2013-04-03 18:33:00,
2013-04-03 14:34:00,52.8,16.9,30.24,NNW,346,5.7,7.0,24,0.00,CLR,OVC,0.00,WeatherDisplay:10.37,2013-04-03 18:34:00,
2013-04-03 14:35:00,52.8,18.8,30.24,WNW,301,5.4,7.0,26,0.00,CLR,OVC,0.00,WeatherDisplay:10.37,2013-04-03 18:35:00,
2013-04-03 14:38:00,52.9,16.1,30.24,North,351,6.4,6.9,23,0.00,CLR,OVC,0.00,WeatherDisplay:10.37,2013-04-03 18:38:00,
2013-04-03 14:39:00,52.9,16.1,30.24,NNW,347,4.5,10.4,23,0.00,CLR,OVC,0.00,WeatherDisplay:10.37,2013-04-03 18:39:00,
2013-04-03 14:40:00,53.1,16.2,30.24,NNE,30,7.5,9.2,23,0.00,CLR,OVC,0.00,WeatherDisplay:10.37,2013-04-03 18:40:00,
2013-04-03 14:42:00,53.1,15.2,30.24,NNE,31,6.3,9.2,22,0.00,CLR,OVC,0.00,WeatherDisplay:10.37,2013-04-03 18:42:00,
2013-04-03 14:43:00,53.1,15.2,30.24,NE,42,6.0,9.2,22,0.00,CLR,OVC,0.00,WeatherDisplay:10.37,2013-04-03 18:43:00,
2013-04-03 14:45:00,53.1,15.2,30.24,North,351,7.0,10.4,22,0.00,CLR,OVC,0.00,WeatherDisplay:10.37,2013-04-03 18:45:00,
2013-04-03 14:46:00,52.9,16.1,30.24,NNW,337,4.3,10.4,23,0.00,CLR,OVC,0.00,WeatherDisplay:10.37,2013-04-03 18:46:00,
2013-04-03 14:48:00,53.1,16.2,30.24,North,360,5.1,6.9,23,0.00,CLR,OVC,0.00,WeatherDisplay:10.37,2013-04-03 18:48:00,
2013-04-03 14:49:00,53.1,17.2,30.24,NNE,21,3.3,5.8,24,0.00,CLR,OVC,0.00,WeatherDisplay:10.37,2013-04-03 18:49:00,
2013-04-03 14:51:00,53.3,18.3,30.24,South,179,1.6,6.0,25,0.00,CLR,OVC,0.00,WeatherDisplay:10.37,2013-04-03 18:51:00,
2013-04-03 14:52:00,53.6,20.4,30.24,SSW,196,7.1,11.5,27,0.00,CLR,OVC,0.00,WeatherDisplay:10.37,2013-04-03 18:52:00,
2013-04-03 14:54:00,54.1,17.1,30.24,SSW,194,2.7,11.5,23,0.00,CLR,OVC,0.00,WeatherDisplay:10.37,2013-04-03 18:54:00,
2013-04-03 14:56:00,54.5,19.3,30.24,West,279,7.9,13.0,25,0.00,CLR,OVC,0.00,WeatherDisplay:10.37,2013-04-03 18:56:00,
2013-04-03 14:57:00,54.5,16.4,30.24,West,281,6.4,12.7,22,0.00,CLR,OVC,0.00,WeatherDisplay:10.37,2013-04-03 18:57:00,
2013-04-03 14:58:00,54.5,18.4,30.24,NW,321,6.8,12.7,24,0.00,CLR,OVC,0.00,WeatherDisplay:10.37,2013-04-03 18:58:00,
2013-04-03 15:02:00,53.8,15.8,30.24,WNW,288,8.5,13.0,22,0.00,CLR,OVC,0.00,WeatherDisplay:10.37,2013-04-03 19:02:00,
2013-04-03 15:03:00,53.8,16.8,30.24,WNW,290,12.5,15.0,23,0.00,CLR,OVC,0.00,WeatherDisplay:10.37,2013-04-03 19:03:00,
2013-04-03 15:05:00,53.6,15.6,30.24,NNW,332,11.5,13.0,22,0.00,CLR,OVC,0.00,WeatherDisplay:10.37,2013-04-03 19:05:00,
2013-04-03 15:08:00,53.8,19.7,30.24,WNW,292,9.1,11.5,26,0.00,CLR,OVC,0.00,WeatherDisplay:10.37,2013-04-03 19:08:00,
2013-04-03 15:10:00,53.8,16.8,30.24,WNW,283,3.0,10.4,23,0.00,CLR,OVC,0.00,WeatherDisplay:10.37,2013-04-03 19:10:00,
2013-04-03 15:11:00,54.1,19.0,30.24,North,360,1.4,3.5,25,0.00,CLR,OVC,0.00,WeatherDisplay:10.37,2013-04-03 19:11:00,
2013-04-03 15:13:00,54.4,18.3,30.24,North,360,2.5,5.0,24,0.00,CLR,OVC,0.00,WeatherDisplay:10.37,2013-04-03 19:13:00,
2013-04-03 15:14:00,54.5,15.3,30.24,NNE,18,2.9,4.6,21,0.00,CLR,OVC,0.00,WeatherDisplay:10.37,2013-04-03 19:14:00,
2013-04-03 15:18:00,55.0,17.8,30.24,West,264,2.4,4.0,23,0.00,CLR,OVC,0.00,WeatherDisplay:10.37,2013-04-03 19:18:00,
2013-04-03 15:19:00,55.3,19.1,30.24,SW,216,6.2,9.2,24,0.00,CLR,OVC,0.00,WeatherDisplay:10.37,2013-04-03 19:19:00,
2013-04-03 15:21:00,55.3,18.1,30.24,SW,216,3.1,9.2,23,0.00,CLR,OVC,0.00,WeatherDisplay:10.37,2013-04-03 19:21:00,
2013-04-03 15:22:00,55.6,19.3,30.24,SW,219,4.5,8.1,24,0.00,CLR,OVC,0.00,WeatherDisplay:10.37,2013-04-03 19:22:00,
2013-04-03 15:23:00,55.7,18.4,30.24,West,273,4.7,8.1,23,0.00,CLR,OVC,0.00,WeatherDisplay:10.37,2013-04-03 19:23:00,
2013-04-03 15:27:00,56.2,17.8,30.24,WSW,245,7.3,10.4,22,0.00,CLR,OVC,0.00,WeatherDisplay:10.37,2013-04-03 19:27:00,
2013-04-03 15:29:00,55.9,17.6,30.24,WSW,243,7.8,13.8,22,0.00,CLR,OVC,0.00,WeatherDisplay:10.37,2013-04-03 19:29:00,
2013-04-03 15:32:00,55.4,14.9,30.24,WSW,237,8.8,11.5,20,0.00,CLR,OVC,0.00,WeatherDisplay:10.37,2013-04-03 19:32:00,
2013-04-03 15:33:00,55.1,14.7,30.24,WSW,238,3.5,5.0,20,0.00,CLR,OVC,0.00,WeatherDisplay:10.37,2013-04-03 19:33:00,
2013-04-03 15:36:00,55.1,16.9,30.24,WSW,256,10.0,11.5,22,0.00,CLR,OVC,0.00,WeatherDisplay:10.37,2013-04-03 19:36:00,
2013-04-03 15:39:00,55.4,17.1,30.24,WSW,249,11.9,13.8,22,0.00,CLR,OVC,0.00,WeatherDisplay:10.37,2013-04-03 19:39:00,
2013-04-03 15:41:00,55.6,20.3,30.24,WSW,256,8.8,12.7,25,0.00,CLR,OVC,0.00,WeatherDisplay:10.37,2013-04-03 19:41:00,
2013-04-03 15:42:00,55.6,17.3,30.24,SW,236,7.7,12.7,22,0.00,CLR,OVC,0.00,WeatherDisplay:10.37,2013-04-03 19:42:00,
2013-04-03 15:43:00,55.4,16.1,30.24,WSW,238,6.3,9.2,21,0.00,CLR,OVC,0.00,WeatherDisplay:10.37,2013-04-03 19:43:00,
2013-04-03 15:44:00,55.4,16.1,30.24,WSW,244,5.6,10.4,21,0.00,CLR,OVC,0.00,WeatherDisplay:10.37,2013-04-03 19:44:00,
2013-04-03 15:47:00,55.3,14.8,30.24,SW,228,5.0,9.2,20,0.00,CLR,OVC,0.00,WeatherDisplay:10.37,2013-04-03 19:47:00,
2013-04-03 15:49:00,55.1,15.8,30.24,SSW,194,6.7,9.2,21,0.00,CLR,OVC,0.00,WeatherDisplay:10.37,2013-04-03 19:49:00,
2013-04-03 15:52:00,55.4,20.1,30.24,WSW,242,6.6,10.0,25,0.00,CLR,OVC,0.00,WeatherDisplay:10.37,2013-04-03 19:52:00,
2013-04-03 15:55:00,55.6,17.3,30.24,WNW,284,3.7,10.0,22,0.00,CLR,OVC,0.00,WeatherDisplay:10.37,2013-04-03 19:55:00,
2013-04-03 15:58:00,55.6,16.2,30.24,West,275,5.4,10.4,21,0.00,CLR,OVC,0.00,WeatherDisplay:10.37,2013-04-03 19:58:00,
2013-04-03 15:59:00,55.4,16.1,30.24,NW,325,5.7,10.4,21,0.00,CLR,OVC,0.00,WeatherDisplay:10.37,2013-04-03 19:59:00,
2013-04-03 16:02:00,55.1,15.8,30.24,NNW,346,8.4,12.7,21,0.00,CLR,OVC,0.00,WeatherDisplay:10.37,2013-04-03 20:02:00,
2013-04-03 16:03:00,55.1,16.9,30.24,NW,307,10.1,12.7,22,0.00,CLR,OVC,0.00,WeatherDisplay:10.37,2013-04-03 20:03:00,
2013-04-03 16:05:00,55.1,16.9,30.24,NNW,331,7.9,11.5,22,0.00,CLR,OVC,0.00,WeatherDisplay:10.37,2013-04-03 20:05:00,
2013-04-03 16:08:00,55.1,17.9,30.24,NNW,342,3.7,6.0,23,0.00,CLR,OVC,0.00,WeatherDisplay:10.37,2013-04-03 20:08:00,
2013-04-03 16:09:00,55.1,16.9,30.24,NW,307,5.5,9.0,22,0.00,CLR,OVC,0.00,WeatherDisplay:10.37,2013-04-03 20:09:00,
2013-04-03 16:11:00,55.3,16.0,30.24,NW,317,0.2,6.9,21,0.00,CLR,OVC,0.00,WeatherDisplay:10.37,2013-04-03 20:11:00,
2013-04-03 16:14:00,55.3,16.0,30.24,NNE,21,2.3,3.5,21,0.00,CLR,OVC,0.00,WeatherDisplay:10.37,2013-04-03 20:14:00,
2013-04-03 16:17:00,55.4,16.1,30.24,WNW,297,6.0,6.9,21,0.00,CLR,OVC,0.00,WeatherDisplay:10.37,2013-04-03 20:17:00,
2013-04-03 16:19:00,55.4,17.1,30.24,West,275,2.8,6.9,22,0.00,CLR,OVC,0.00,WeatherDisplay:10.37,2013-04-03 20:19:00,
2013-04-03 16:20:00,55.4,17.1,30.24,West,264,6.5,9.0,22,0.00,CLR,OVC,0.00,WeatherDisplay:10.37,2013-04-03 20:20:00,
2013-04-03 16:21:00,55.3,16.0,30.24,West,270,4.8,11.5,21,0.00,CLR,OVC,0.00,WeatherDisplay:10.37,2013-04-03 20:21:00,
2013-04-03 16:24:00,55.3,17.0,30.24,WSW,250,5.2,7.0,22,0.00,CLR,OVC,0.00,WeatherDisplay:10.37,2013-04-03 20:24:00,
2013-04-03 16:25:00,55.4,16.1,30.24,WSW,250,4.0,6.9,21,0.00,CLR,OVC,0.00,WeatherDisplay:10.37,2013-04-03 20:25:00,
2013-04-03 16:26:00,55.6,17.3,30.24,WSW,250,2.8,3.5,22,0.00,CLR,OVC,0.00,WeatherDisplay:10.37,2013-04-03 20:26:00,
2013-04-03 16:29:00,56.0,17.6,30.24,North,10,5.2,7.0,22,0.00,CLR,OVC,0.00,WeatherDisplay:10.37,2013-04-03 20:29:00,
2013-04-03 16:30:00,56.0,17.6,30.24,West,276,5.0,12.0,22,0.00,CLR,OVC,0.00,WeatherDisplay:10.37,2013-04-03 20:30:00,
2013-04-03 16:32:00,56.0,16.6,30.24,North,10,2.6,5.8,21,0.00,CLR,OVC,0.00,WeatherDisplay:10.37,2013-04-03 20:32:00,
2013-04-03 16:36:00,55.9,15.3,30.24,North,351,1.2,4.6,20,0.00,CLR,OVC,0.00,WeatherDisplay:10.37,2013-04-03 20:36:00,
2013-04-03 16:37:00,55.9,16.5,30.24,North,351,1.8,4.6,21,0.00,CLR,OVC,0.00,WeatherDisplay:10.37,2013-04-03 20:37:00,
2013-04-03 16:38:00,55.9,17.6,30.24,NNW,340,3.6,9.0,22,0.00,CLR,OVC,0.00,WeatherDisplay:10.37,2013-04-03 20:38:00,
2013-04-03 16:40:00,55.9,15.3,30.24,North,349,6.1,10.4,20,0.00,CLR,OVC,0.00,WeatherDisplay:10.37,2013-04-03 20:40:00,
2013-04-03 16:43:00,55.9,16.5,30.24,West,279,6.4,11.5,21,0.00,CLR,OVC,0.00,WeatherDisplay:10.37,2013-04-03 20:43:00,
2013-04-03 16:44:00,55.9,17.6,30.24,NW,313,4.9,8.1,22,0.00,CLR,OVC,0.00,WeatherDisplay:10.37,2013-04-03 20:44:00,
2013-04-03 16:45:00,55.9,15.3,30.24,NW,313,5.4,9.2,20,0.00,CLR,OVC,0.00,WeatherDisplay:10.37,2013-04-03 20:45:00,
2013-04-03 16:49:00,55.9,15.3,30.24,West,267,10.7,14.0,20,0.00,CLR,OVC,0.00,WeatherDisplay:10.37,2013-04-03 20:49:00,
2013-04-03 16:52:00,55.9,16.5,30.24,WSW,237,5.0,8.1,21,0.00,CLR,OVC,0.00,WeatherDisplay:10.37,2013-04-03 20:52:00,
2013-04-03 16:53:00,55.9,17.6,30.24,WSW,249,3.3,6.9,22,0.00,CLR,OVC,0.00,WeatherDisplay:10.37,2013-04-03 20:53:00,
2013-04-03 16:55:00,56.0,15.4,30.24,West,262,3.9,5.0,20,0.00,CLR,OVC,0.00,WeatherDisplay:10.37,2013-04-03 20:55:00,
2013-04-03 16:58:00,56.3,15.7,30.24,NW,311,5.8,5.8,20,0.00,CLR,OVC,0.00,WeatherDisplay:10.37,2013-04-03 20:58:00,
2013-04-03 17:00:00,56.5,15.8,30.24,NW,322,3.7,7.0,20,0.00,CLR,OVC,0.00,WeatherDisplay:10.37,2013-04-03 21:00:00,
2013-04-03 17:05:00,56.7,16.0,30.24,West,261,6.7,11.5,20,0.00,CLR,OVC,0.00,WeatherDisplay:10.37,2013-04-03 21:05:00,
2013-04-03 17:07:00,56.6,15.9,30.24,West,275,13.2,15.0,20,0.00,CLR,OVC,0.00,WeatherDisplay:10.37,2013-04-03 21:07:00,
2013-04-03 17:10:00,56.3,15.7,30.24,WNW,284,9.0,15.0,20,0.00,CLR,OVC,0.00,WeatherDisplay:10.37,2013-04-03 21:10:00,
2013-04-03 17:11:00,56.2,15.6,30.24,WNW,284,8.4,15.0,20,0.00,CLR,OVC,0.00,WeatherDisplay:10.37,2013-04-03 21:11:00,
2013-04-03 17:14:00,56.2,15.6,30.24,WNW,284,3.7,5.8,20,0.00,CLR,OVC,0.00,WeatherDisplay:10.37,2013-04-03 21:14:00,
2013-04-03 17:15:00,56.2,15.6,30.24,WNW,282,4.1,5.8,20,0.00,CLR,OVC,0.00,WeatherDisplay:10.37,2013-04-03 21:15:00,
2013-04-03 17:17:00,56.3,15.7,30.24,NW,307,6.9,10.4,20,0.00,CLR,OVC,0.00,WeatherDisplay:10.37,2013-04-03 21:17:00,
2013-04-03 17:18:00,56.3,15.7,30.24,WNW,285,7.2,10.4,20,0.00,CLR,OVC,0.00,WeatherDisplay:10.37,2013-04-03 21:18:00,
2013-04-03 17:19:00,56.3,15.7,30.24,WNW,286,9.1,11.0,20,0.00,CLR,OVC,0.00,WeatherDisplay:10.37,2013-04-03 21:19:00,
2013-04-03 17:22:00,56.0,15.4,30.24,WNW,284,10.0,12.7,20,0.00,CLR,OVC,0.00,WeatherDisplay:10.37,2013-04-03 21:22:00,
2013-04-03 17:24:00,56.0,16.6,30.24,WNW,287,4.0,10.4,21,0.00,CLR,OVC,0.00,WeatherDisplay:10.37,2013-04-03 21:24:00,
2013-04-03 17:27:00,56.0,15.4,30.24,WNW,285,1.5,5.8,20,0.00,CLR,OVC,0.00,WeatherDisplay:10.37,2013-04-03 21:27:00,
2013-04-03 17:30:00,56.3,17.9,30.24,WNW,285,2.3,3.5,22,0.00,CLR,OVC,0.00,WeatherDisplay:10.37,2013-04-03 21:30:00,
2013-04-03 17:33:00,56.5,17.0,30.24,WNW,285,1.8,4.0,21,0.00,CLR,OVC,0.00,WeatherDisplay:10.37,2013-04-03 21:33:00,
2013-04-03 17:34:00,56.5,15.8,30.23,WNW,285,4.0,5.0,20,0.00,CLR,OVC,0.00,WeatherDisplay:10.37,2013-04-03 21:34:00,
2013-04-03 17:35:00,56.5,17.0,30.23,WNW,285,3.4,5.0,21,0.00,CLR,OVC,0.00,WeatherDisplay:10.37,2013-04-03 21:35:00,
2013-04-03 17:38:00,56.6,17.1,30.23,WNW,300,7.1,10.4,21,0.00,CLR,OVC,0.00,WeatherDisplay:10.37,2013-04-03 21:38:00,
2013-04-03 17:39:00,56.6,15.9,30.23,NNW,332,5.8,10.4,20,0.00,CLR,OVC,0.00,WeatherDisplay:10.37,2013-04-03 21:39:00,
2013-04-03 17:40:00,56.6,15.9,30.23,NNW,332,5.2,10.4,20,0.00,CLR,OVC,0.00,WeatherDisplay:10.37,2013-04-03 21:40:00,
2013-04-03 17:43:00,56.3,15.7,30.23,NNW,332,2.3,10.4,20,0.00,CLR,OVC,0.00,WeatherDisplay:10.37,2013-04-03 21:43:00,
2013-04-03 17:45:00,56.3,15.7,30.23,NNW,332,0.0,10.4,20,0.00,CLR,OVC,0.00,WeatherDisplay:10.37,2013-04-03 21:45:00,
2013-04-03 17:47:00,56.3,15.7,30.23,NNW,331,0.8,2.0,20,0.00,CLR,OVC,0.00,WeatherDisplay:10.37,2013-04-03 21:47:00,
2013-04-03 17:50:00,56.2,15.6,30.23,NW,315,0.3,5.8,20,0.00,CLR,OVC,0.00,WeatherDisplay:10.37,2013-04-03 21:50:00,
2013-04-03 17:52:00,56.2,15.6,30.23,NW,315,0.0,1.1,20,0.00,CLR,OVC,0.00,WeatherDisplay:10.37,2013-04-03 21:52:00,
2013-04-03 17:53:00,56.3,15.7,30.23,NW,315,0.0,0.0,20,0.00,CLR,OVC,0.00,WeatherDisplay:10.37,2013-04-03 21:53:00,
2013-04-03 17:56:00,56.3,15.7,30.23,NW,315,3.1,5.8,20,0.00,CLR,OVC,0.00,WeatherDisplay:10.37,2013-04-03 21:56:00,
2013-04-03 17:57:00,56.3,15.7,30.23,NW,315,0.0,3.5,20,0.00,CLR,OVC,0.00,WeatherDisplay:10.37,2013-04-03 21:57:00,
2013-04-03 17:58:00,56.2,15.6,30.23,NW,315,0.0,3.5,20,0.00,CLR,OVC,0.00,WeatherDisplay:10.37,2013-04-03 21:58:00,
2013-04-03 17:59:00,56.2,15.6,30.23,NW,315,0.0,0.0,20,0.00,CLR,OVC,0.00,WeatherDisplay:10.37,2013-04-03 21:59:00,
2013-04-03 18:02:00,56.2,15.6,30.23,NW,315,0.0,0.0,20,0.00,CLR,OVC,0.00,WeatherDisplay:10.37,2013-04-03 22:02:00,
2013-04-03 18:03:00,56.2,15.6,30.23,NW,315,1.9,3.0,20,0.00,CLR,OVC,0.00,WeatherDisplay:10.37,2013-04-03 22:03:00,
2013-04-03 18:06:00,56.2,15.6,30.24,West,269,5.3,9.2,20,0.00,CLR,OVC,0.00,WeatherDisplay:10.37,2013-04-03 22:06:00,
2013-04-03 18:07:00,56.2,15.6,30.24,West,269,3.6,3.6,20,0.00,CLR,OVC,0.00,WeatherDisplay:10.37,2013-04-03 22:07:00,
2013-04-03 18:09:00,56.0,15.4,30.24,West,269,3.2,3.5,20,0.00,CLR,OVC,0.00,WeatherDisplay:10.37,2013-04-03 22:09:00,
2013-04-03 18:11:00,56.2,17.8,30.24,West,279,3.1,4.6,22,0.00,CLR,OVC,0.00,WeatherDisplay:10.37,2013-04-03 22:11:00,
2013-04-03 18:13:00,56.0,15.4,30.24,West,279,3.9,5.0,20,0.00,CLR,OVC,0.00,WeatherDisplay:10.37,2013-04-03 22:13:00,
2013-04-03 18:14:00,56.0,15.4,30.24,WNW,290,3.2,5.0,20,0.00,CLR,OVC,0.00,WeatherDisplay:10.37,2013-04-03 22:14:00,
2013-04-03 18:19:00,56.0,15.4,30.24,NW,321,4.5,6.9,20,0.00,CLR,OVC,0.00,WeatherDisplay:10.37,2013-04-03 22:19:00,
2013-04-03 18:20:00,56.0,15.4,30.24,NW,321,2.7,5.8,20,0.00,CLR,OVC,0.00,WeatherDisplay:10.37,2013-04-03 22:20:00,
2013-04-03 18:25:00,55.9,15.3,30.24,NW,321,2.1,3.0,20,0.00,CLR,OVC,0.00,WeatherDisplay:10.37,2013-04-03 22:25:00,
2013-04-03 18:27:00,55.9,15.3,30.24,NW,321,0.0,0.0,20,0.00,CLR,OVC,0.00,WeatherDisplay:10.37,2013-04-03 22:27:00,
2013-04-03 18:30:00,55.9,15.3,30.24,NW,321,0.0,8.0,20,0.00,CLR,OVC,0.00,WeatherDisplay:10.37,2013-04-03 22:30:00,
2013-04-03 18:31:00,55.9,15.3,30.24,NW,321,0.8,2.3,20,0.00,CLR,OVC,0.00,WeatherDisplay:10.37,2013-04-03 22:31:00,
2013-04-03 18:32:00,55.9,15.3,30.24,NW,321,0.1,2.3,20,0.00,CLR,OVC,0.00,WeatherDisplay:10.37,2013-04-03 22:32:00,
2013-04-03 18:34:00,55.9,15.3,30.24,NW,321,0.0,0.0,20,0.00,CLR,OVC,0.00,WeatherDisplay:10.37,2013-04-03 22:34:00,
2013-04-03 18:37:00,55.9,15.3,30.24,NW,321,0.0,0.0,20,0.00,CLR,OVC,0.00,WeatherDisplay:10.37,2013-04-03 22:37:00,
2013-04-03 18:40:00,55.9,15.3,30.23,NW,321,0.0,1.1,20,0.00,CLR,OVC,0.00,WeatherDisplay:10.37,2013-04-03 22:40:00,
2013-04-03 18:43:00,55.9,17.6,30.23,NW,321,0.0,0.0,22,0.00,CLR,OVC,0.00,WeatherDisplay:10.37,2013-04-03 22:43:00,
2013-04-03 18:44:00,55.9,16.5,30.23,NW,321,0.0,0.0,21,0.00,CLR,OVC,0.00,WeatherDisplay:10.37,2013-04-03 22:44:00,
2013-04-03 18:45:00,55.9,15.3,30.23,NW,321,0.0,0.0,20,0.00,CLR,OVC,0.00,WeatherDisplay:10.37,2013-04-03 22:45:00,
2013-04-03 18:49:00,55.9,15.3,30.23,NW,321,0.1,1.0,20,0.00,CLR,OVC,0.00,WeatherDisplay:10.37,2013-04-03 22:49:00,
2013-04-03 18:50:00,55.9,15.3,30.23,NW,321,0.0,1.1,20,0.00,CLR,OVC,0.00,WeatherDisplay:10.37,2013-04-03 22:50:00,
2013-04-03 18:52:00,55.9,15.3,30.23,NW,321,0.0,0.0,20,0.00,CLR,OVC,0.00,WeatherDisplay:10.37,2013-04-03 22:52:00,
2013-04-03 18:53:00,55.9,15.3,30.23,NW,321,0.0,0.0,20,0.00,CLR,OVC,0.00,WeatherDisplay:10.37,2013-04-03 22:53:00,
2013-04-03 18:55:00,55.7,15.2,30.23,NW,321,0.0,0.0,20,0.00,CLR,OVC,0.00,WeatherDisplay:10.37,2013-04-03 22:55:00,
2013-04-03 18:58:00,55.7,15.2,30.23,NW,321,0.0,2.3,20,0.00,CLR,OVC,0.00,WeatherDisplay:10.37,2013-04-03 22:58:00,
2013-04-03 18:59:00,55.7,15.2,30.23,NW,321,0.0,0.0,20,0.00,CLR,OVC,0.00,WeatherDisplay:10.37,2013-04-03 22:59:00,
2013-04-03 19:00:00,55.7,15.2,30.23,NW,321,0.0,0.0,20,0.00,CLR,OVC,0.00,WeatherDisplay:10.37,2013-04-03 23:00:00,
2013-04-03 19:02:00,55.7,17.4,30.23,NW,321,0.0,0.0,22,0.00,CLR,OVC,0.00,WeatherDisplay:10.37,2013-04-03 23:02:00,
2013-04-03 19:03:00,55.7,15.2,30.23,NW,321,0.0,0.0,20,0.00,CLR,OVC,0.00,WeatherDisplay:10.37,2013-04-03 23:03:00,
2013-04-03 19:05:00,55.7,15.2,30.23,NW,321,0.0,0.0,20,0.00,CLR,OVC,0.00,WeatherDisplay:10.37,2013-04-03 23:05:00,
2013-04-03 19:06:00,55.6,15.1,30.23,NW,321,0.0,0.0,20,0.00,CLR,OVC,0.00,WeatherDisplay:10.37,2013-04-03 23:06:00,
2013-04-03 19:09:00,55.6,15.1,30.23,NW,321,0.0,0.0,20,0.00,CLR,OVC,0.00,WeatherDisplay:10.37,2013-04-03 23:09:00,
2013-04-03 19:10:00,55.6,15.1,30.23,NW,321,0.0,0.0,20,0.00,CLR,OVC,0.00,WeatherDisplay:10.37,2013-04-03 23:10:00,
2013-04-03 19:11:00,55.6,15.1,30.23,NW,321,0.0,0.0,20,0.00,CLR,OVC,0.00,WeatherDisplay:10.37,2013-04-03 23:11:00,
2013-04-03 19:12:00,55.6,15.1,30.23,NW,321,0.0,0.0,20,0.00,CLR,OVC,0.00,WeatherDisplay:10.37,2013-04-03 23:12:00,
2013-04-03 19:15:00,55.4,14.9,30.22,NW,321,0.0,0.0,20,0.00,CLR,OVC,0.00,WeatherDisplay:10.37,2013-04-03 23:15:00,
2013-04-03 19:16:00,55.4,14.9,30.22,NW,321,0.0,0.0,20,0.00,CLR,OVC,0.00,WeatherDisplay:10.37,2013-04-03 23:16:00,
2013-04-03 19:21:00,55.4,16.1,30.23,NW,321,0.0,0.0,21,0.00,CLR,OVC,0.00,WeatherDisplay:10.37,2013-04-03 23:21:00,
2013-04-03 19:22:00,55.3,14.8,30.23,NW,321,0.0,0.0,20,0.00,CLR,OVC,0.00,WeatherDisplay:10.37,2013-04-03 23:22:00,
2013-04-03 19:26:00,55.3,14.8,30.23,NW,321,0.0,0.0,20,0.00,CLR,OVC,0.00,WeatherDisplay:10.37,2013-04-03 23:26:00,
2013-04-03 19:27:00,55.1,14.7,30.23,NW,321,0.0,0.0,20,0.00,CLR,OVC,0.00,WeatherDisplay:10.37,2013-04-03 23:27:00,
2013-04-03 19:28:00,55.1,14.7,30.23,NW,321,0.0,0.0,20,0.00,CLR,OVC,0.00,WeatherDisplay:10.37,2013-04-03 23:28:00,
2013-04-03 19:33:00,55.1,15.8,30.23,NW,321,0.0,0.0,21,0.00,CLR,OVC,0.00,WeatherDisplay:10.37,2013-04-03 23:33:00,
2013-04-03 19:35:00,55.1,14.7,30.24,NW,321,0.0,0.0,20,0.00,CLR,OVC,0.00,WeatherDisplay:10.37,2013-04-03 23:35:00,
2013-04-03 19:37:00,55.1,14.7,30.24,NW,321,0.0,0.0,20,0.00,CLR,OVC,0.00,WeatherDisplay:10.37,2013-04-03 23:37:00,
2013-04-03 19:39:00,55.1,14.7,30.24,NW,321,0.0,0.0,20,0.00,CLR,OVC,0.00,WeatherDisplay:10.37,2013-04-03 23:39:00,
2013-04-03 19:42:00,55.0,14.6,30.24,NW,321,0.0,0.0,20,0.00,CLR,OVC,0.00,WeatherDisplay:10.37,2013-04-03 23:42:00,
2013-04-03 19:44:00,55.0,15.7,30.24,NW,321,0.0,0.0,21,0.00,CLR,OVC,0.00,WeatherDisplay:10.37,2013-04-03 23:44:00,
2013-04-03 19:45:00,55.0,14.6,30.24,NW,321,0.0,0.0,20,0.00,CLR,OVC,0.00,WeatherDisplay:10.37,2013-04-03 23:45:00,
2013-04-03 19:46:00,55.0,14.6,30.24,NW,321,0.0,0.0,20,0.00,CLR,OVC,0.00,WeatherDisplay:10.37,2013-04-03 23:46:00,
2013-04-03 19:49:00,55.0,18.8,30.24,NW,321,0.0,0.0,24,0.00,CLR,OVC,0.00,WeatherDisplay:10.37,2013-04-03 23:49:00,
2013-04-03 19:50:00,54.8,19.6,30.24,NW,321,0.0,0.0,25,0.00,CLR,OVC,0.00,WeatherDisplay:10.37,2013-04-03 23:50:00,
2013-04-03 19:52:00,54.7,19.5,30.24,NW,321,0.0,0.0,25,0.00,CLR,OVC,0.00,WeatherDisplay:10.37,2013-04-03 23:52:00,
2013-04-03 19:55:00,54.5,19.3,30.24,NW,321,0.0,0.0,25,0.00,CLR,OVC,0.00,WeatherDisplay:10.37,2013-04-03 23:55:00,
2013-04-03 19:56:00,54.5,19.3,30.24,NW,321,0.0,0.0,25,0.00,CLR,OVC,0.00,WeatherDisplay:10.37,2013-04-03 23:56:00,
2013-04-03 19:57:00,54.4,19.3,30.24,NW,321,0.0,0.0,25,0.00,CLR,OVC,0.00,WeatherDisplay:10.37,2013-04-03 23:57:00,
2013-04-03 20:00:00,54.2,18.1,30.24,NW,321,0.0,0.0,24,0.00,CLR,OVC,0.00,WeatherDisplay:10.37,2013-04-04 00:00:00,
2013-04-03 20:02:00,54.1,18.1,30.24,NW,321,0.0,0.0,24,0.00,CLR,OVC,0.00,WeatherDisplay:10.37,2013-04-04 00:02:00,
2013-04-03 20:04:00,53.9,17.9,30.24,NW,321,0.0,0.0,24,0.00,CLR,OVC,0.00,WeatherDisplay:10.37,2013-04-04 00:04:00,
2013-04-03 20:06:00,53.8,17.8,30.24,NW,321,0.0,0.0,24,0.00,CLR,OVC,0.00,WeatherDisplay:10.37,2013-04-04 00:06:00,
2013-04-03 20:07:00,53.6,21.2,30.24,NW,321,0.0,0.0,28,0.00,CLR,OVC,0.00,WeatherDisplay:10.37,2013-04-04 00:07:00,
2013-04-03 20:09:00,53.5,21.2,30.24,NW,321,0.0,0.0,28,0.00,CLR,OVC,0.00,WeatherDisplay:10.37,2013-04-04 00:09:00,
2013-04-03 20:10:00,53.2,21.7,30.24,NW,321,1.3,3.0,29,0.00,CLR,OVC,0.00,WeatherDisplay:10.37,2013-04-04 00:10:00,
2013-04-03 20:11:00,52.9,19.8,30.24,NW,321,3.0,3.5,27,0.00,CLR,OVC,0.00,WeatherDisplay:10.37,2013-04-04 00:11:00,
2013-04-03 20:12:00,52.6,23.5,30.24,NW,321,0.3,2.3,32,0.00,CLR,OVC,0.00,WeatherDisplay:10.37,2013-04-04 00:12:00,
2013-04-03 20:14:00,52.2,19.2,30.24,NNW,348,2.2,3.5,27,0.00,CLR,OVC,0.00,WeatherDisplay:10.37,2013-04-04 00:14:00,
2013-04-03 20:15:00,52.0,19.9,30.24,NNW,348,1.8,3.5,28,0.00,CLR,OVC,0.00,WeatherDisplay:10.37,2013-04-04 00:15:00,
2013-04-03 20:17:00,52.0,18.1,30.24,NNW,348,2.2,3.5,26,0.00,CLR,OVC,0.00,WeatherDisplay:10.37,2013-04-04 00:17:00,
2013-04-03 20:20:00,52.5,18.6,30.24,NNW,348,1.8,3.5,26,0.00,CLR,OVC,0.00,WeatherDisplay:10.37,2013-04-04 00:20:00,
2013-04-03 20:22:00,52.8,16.9,30.24,North,351,3.1,3.5,24,0.00,CLR,OVC,0.00,WeatherDisplay:10.37,2013-04-04 00:22:00,
2013-04-03 20:24:00,52.9,17.0,30.24,North,351,2.3,3.5,24,0.00,CLR,OVC,0.00,WeatherDisplay:10.37,2013-04-04 00:24:00,
2013-04-03 20:27:00,53.1,19.1,30.24,North,351,0.8,2.3,26,0.00,CLR,OVC,0.00,WeatherDisplay:10.37,2013-04-04 00:27:00,
2013-04-03 20:29:00,52.9,20.6,30.24,North,351,0.0,0.0,28,0.00,CLR,OVC,0.00,WeatherDisplay:10.37,2013-04-04 00:29:00,
2013-04-03 20:30:00,52.9,20.6,30.24,North,351,0.0,0.0,28,0.00,CLR,OVC,0.00,WeatherDisplay:10.37,2013-04-04 00:30:00,
2013-04-03 20:33:00,52.6,19.5,30.24,North,351,0.0,0.0,27,0.00,CLR,OVC,0.00,WeatherDisplay:10.37,2013-04-04 00:33:00,
2013-04-03 20:35:00,52.6,19.5,30.26,North,351,0.0,0.0,27,0.00,CLR,OVC,0.00,WeatherDisplay:10.37,2013-04-04 00:35:00,
2013-04-03 20:36:00,52.6,19.5,30.26,North,351,0.0,0.0,27,0.00,CLR,OVC,0.00,WeatherDisplay:10.37,2013-04-04 00:36:00,
2013-04-03 20:37:00,52.6,20.4,30.26,North,351,0.0,0.0,28,0.00,CLR,OVC,0.00,WeatherDisplay:10.37,2013-04-04 00:37:00,
2013-04-03 20:38:00,52.5,22.7,30.26,North,351,0.0,0.0,31,0.00,CLR,OVC,0.00,WeatherDisplay:10.37,2013-04-04 00:38:00,
2013-04-03 20:40:00,52.3,20.1,30.26,North,351,0.0,0.0,28,0.00,CLR,OVC,0.00,WeatherDisplay:10.37,2013-04-04 00:40:00,
2013-04-03 20:41:00,52.2,20.0,30.26,North,351,0.0,0.0,28,0.00,CLR,OVC,0.00,WeatherDisplay:10.37,2013-04-04 00:41:00,
2013-04-03 20:42:00,52.0,20.7,30.26,North,351,0.0,0.0,29,0.00,CLR,OVC,0.00,WeatherDisplay:10.37,2013-04-04 00:42:00,
2013-04-03 20:43:00,51.9,20.6,30.26,North,351,0.0,0.0,29,0.00,CLR,OVC,0.00,WeatherDisplay:10.37,2013-04-04 00:43:00,
2013-04-03 20:45:00,51.4,21.7,30.26,North,351,0.0,0.0,31,0.00,CLR,OVC,0.00,WeatherDisplay:10.37,2013-04-04 00:45:00,
2013-04-03 20:47:00,51.3,20.1,30.26,North,351,0.0,0.0,29,0.00,CLR,OVC,0.00,WeatherDisplay:10.37,2013-04-04 00:47:00,
2013-04-03 20:48:00,51.0,20.6,30.26,North,351,0.0,0.0,30,0.00,CLR,OVC,0.00,WeatherDisplay:10.37,2013-04-04 00:48:00,
2013-04-03 20:49:00,51.0,20.6,30.26,North,351,0.0,0.0,30,0.00,CLR,OVC,0.00,WeatherDisplay:10.37,2013-04-04 00:49:00,
2013-04-03 20:51:00,50.7,23.3,30.26,North,351,0.0,0.0,34,0.00,CLR,OVC,0.00,WeatherDisplay:10.37,2013-04-04 00:51:00,
2013-04-03 20:52:00,50.5,23.1,30.26,North,351,0.0,0.0,34,0.00,CLR,OVC,0.00,WeatherDisplay:10.37,2013-04-04 00:52:00,
2013-04-03 20:53:00,50.2,22.9,30.26,North,351,0.0,0.0,34,0.00,CLR,OVC,0.00,WeatherDisplay:10.37,2013-04-04 00:53:00,
2013-04-03 20:54:00,50.1,22.8,30.26,North,351,0.9,2.3,34,0.00,CLR,OVC,0.00,WeatherDisplay:10.37,2013-04-04 00:54:00,
2013-04-03 20:57:00,49.8,20.3,30.26,North,351,0.0,0.0,31,0.00,CLR,OVC,0.00,WeatherDisplay:10.37,2013-04-04 00:57:00,
2013-04-03 20:59:00,49.6,20.2,30.26,North,351,1.6,3.0,31,0.00,CLR,OVC,0.00,WeatherDisplay:10.37,2013-04-04 00:59:00,
2013-04-03 21:00:00,49.6,20.2,30.26,North,351,2.8,4.0,31,0.00,CLR,OVC,0.00,WeatherDisplay:10.37,2013-04-04 01:00:00,
2013-04-03 21:04:00,50.2,19.1,30.26,North,351,3.4,4.0,29,0.00,CLR,OVC,0.00,WeatherDisplay:10.37,2013-04-04 01:04:00,
2013-04-03 21:05:00,50.4,18.5,30.26,North,351,3.3,4.0,28,0.00,CLR,OVC,0.00,WeatherDisplay:10.37,2013-04-04 01:05:00,
2013-04-03 21:06:00,50.7,18.7,30.26,North,351,3.5,4.0,28,0.00,CLR,OVC,0.00,WeatherDisplay:10.37,2013-04-04 01:06:00,
2013-04-03 21:10:00,51.4,19.3,30.26,North,351,2.7,3.5,28,0.00,CLR,OVC,0.00,WeatherDisplay:10.37,2013-04-04 01:10:00,
2013-04-03 21:12:00,51.4,20.2,30.26,North,351,1.9,3.5,29,0.00,CLR,OVC,0.00,WeatherDisplay:10.37,2013-04-04 01:12:00,
2013-04-03 21:13:00,51.4,21.7,30.26,North,351,1.8,3.5,31,0.00,CLR,OVC,0.00,WeatherDisplay:10.37,2013-04-04 01:13:00,
2013-04-03 21:16:00,51.3,23.8,30.26,North,351,2.8,3.5,34,0.00,CLR,OVC,0.00,WeatherDisplay:10.37,2013-04-04 01:16:00,
2013-04-03 21:17:00,51.0,24.3,30.26,North,351,2.2,3.5,35,0.00,CLR,OVC,0.00,WeatherDisplay:10.37,2013-04-04 01:17:00,
2013-04-03 21:19:00,50.4,25.7,30.26,North,351,2.9,3.5,38,0.00,CLR,OVC,0.00,WeatherDisplay:10.37,2013-04-04 01:19:00,
2013-04-03 21:21:00,49.8,25.2,30.27,North,351,2.8,3.5,38,0.00,CLR,OVC,0.00,WeatherDisplay:10.37,2013-04-04 01:21:00,
2013-04-03 21:22:00,49.6,24.4,30.27,North,351,2.8,3.5,37,0.00,CLR,OVC,0.00,WeatherDisplay:10.37,2013-04-04 01:22:00,
2013-04-03 21:24:00,49.5,24.3,30.27,North,351,2.1,3.5,37,0.00,CLR,OVC,0.00,WeatherDisplay:10.37,2013-04-04 01:24:00,
2013-04-03 21:26:00,49.4,25.4,30.26,North,351,1.7,3.5,39,0.00,CLR,OVC,0.00,WeatherDisplay:10.37,2013-04-04 01:26:00,
2013-04-03 21:29:00,49.2,25.9,30.26,North,351,2.0,3.5,40,0.00,CLR,OVC,0.00,WeatherDisplay:10.37,2013-04-04 01:29:00,
2013-04-03 21:30:00,49.2,25.3,30.26,North,351,2.0,3.0,39,0.00,CLR,OVC,0.00,WeatherDisplay:10.37,2013-04-04 01:30:00,
2013-04-03 21:33:00,48.9,26.2,30.26,North,351,1.8,2.3,41,0.00,CLR,OVC,0.00,WeatherDisplay:10.37,2013-04-04 01:33:00,
2013-04-03 21:34:00,48.6,25.9,30.28,North,351,2.0,3.5,41,0.00,CLR,OVC,0.00,WeatherDisplay:10.37,2013-04-04 01:34:00,
2013-04-03 21:35:00,48.6,26.5,30.28,North,351,2.2,3.5,42,0.00,CLR,OVC,0.00,WeatherDisplay:10.37,2013-04-04 01:35:00,
2013-04-03 21:39:00,48.0,25.4,30.28,North,351,1.7,2.3,41,0.00,CLR,OVC,0.00,WeatherDisplay:10.37,2013-04-04 01:39:00,
2013-04-03 21:40:00,47.7,25.7,30.28,North,351,0.5,2.3,42,0.00,CLR,OVC,0.00,WeatherDisplay:10.37,2013-04-04 01:40:00,
2013-04-03 21:41:00,47.7,25.7,30.28,North,351,1.5,3.0,42,0.00,CLR,OVC,0.00,WeatherDisplay:10.37,2013-04-04 01:41:00,
2013-04-03 21:45:00,48.8,18.7,30.28,North,351,2.1,3.5,30,0.00,CLR,OVC,0.00,WeatherDisplay:10.37,2013-04-04 01:45:00,
2013-04-03 21:47:00,49.4,18.4,30.28,North,351,0.8,3.5,29,0.00,CLR,OVC,0.00,WeatherDisplay:10.37,2013-04-04 01:47:00,
2013-04-03 21:50:00,49.6,18.6,30.30,North,351,1.6,3.5,29,0.00,CLR,OVC,0.00,WeatherDisplay:10.37,2013-04-04 01:50:00,
2013-04-03 21:51:00,49.8,18.8,30.30,North,351,1.6,3.5,29,0.00,CLR,OVC,0.00,WeatherDisplay:10.37,2013-04-04 01:51:00,
2013-04-03 21:52:00,49.9,19.7,30.30,North,351,2.5,3.5,30,0.00,CLR,OVC,0.00,WeatherDisplay:10.37,2013-04-04 01:52:00,
2013-04-03 21:54:00,50.1,19.0,30.30,North,351,1.8,3.5,29,0.00,CLR,OVC,0.00,WeatherDisplay:10.37,2013-04-04 01:54:00,
2013-04-03 21:56:00,50.1,20.6,30.30,North,351,2.6,3.5,31,0.00,CLR,OVC,0.00,WeatherDisplay:10.37,2013-04-04 01:56:00,
2013-04-03 21:58:00,49.9,21.2,30.30,North,351,2.0,3.5,32,0.00,CLR,OVC,0.00,WeatherDisplay:10.37,2013-04-04 01:58:00,
2013-04-03 21:59:00,49.8,20.3,30.30,North,351,2.2,3.5,31,0.00,CLR,OVC,0.00,WeatherDisplay:10.37,2013-04-04 01:59:00,
2013-04-03 22:01:00,49.9,19.7,30.30,North,351,2.5,4.0,30,0.00,CLR,OVC,0.00,WeatherDisplay:10.37,2013-04-04 02:01:00,
2013-04-03 22:02:00,49.9,19.7,30.30,North,351,2.3,3.5,30,0.00,CLR,OVC,0.00,WeatherDisplay:10.37,2013-04-04 02:02:00,
2013-04-03 22:04:00,50.2,19.9,30.30,North,351,0.1,3.5,30,0.00,CLR,OVC,0.00,WeatherDisplay:10.37,2013-04-04 02:04:00,
2013-04-03 22:06:00,50.1,20.6,30.30,North,351,0.6,1.1,31,0.00,CLR,OVC,0.00,WeatherDisplay:10.37,2013-04-04 02:06:00,
2013-04-03 22:07:00,50.1,20.6,30.30,North,351,1.0,2.3,31,0.00,CLR,OVC,0.00,WeatherDisplay:10.37,2013-04-04 02:07:00,
2013-04-03 22:09:00,50.1,20.6,30.30,North,351,0.0,1.1,31,0.00,CLR,OVC,0.00,WeatherDisplay:10.37,2013-04-04 02:09:00,
2013-04-03 22:11:00,49.9,20.4,30.30,North,351,1.3,3.5,31,0.00,CLR,OVC,0.00,WeatherDisplay:10.37,2013-04-04 02:11:00,
2013-04-03 22:14:00,50.1,21.3,30.30,North,351,0.7,2.3,32,0.00,CLR,OVC,0.00,WeatherDisplay:10.37,2013-04-04 02:14:00,
2013-04-03 22:15:00,50.1,21.3,30.30,North,351,0.6,2.3,32,0.00,CLR,OVC,0.00,WeatherDisplay:10.37,2013-04-04 02:15:00,
2013-04-03 22:19:00,49.9,24.6,30.30,North,351,0.0,0.0,37,0.00,CLR,OVC,0.00,WeatherDisplay:10.37,2013-04-04 02:19:00,
2013-04-03 22:20:00,49.8,23.2,30.31,North,351,0.0,0.0,35,0.00,CLR,OVC,0.00,WeatherDisplay:10.37,2013-04-04 02:20:00,
2013-04-03 22:22:00,49.6,22.3,30.31,North,351,0.0,0.0,34,0.00,CLR,OVC,0.00,WeatherDisplay:10.37,2013-04-04 02:22:00,
2013-04-03 22:23:00,49.6,21.6,30.31,North,351,0.2,0.0,33,0.00,CLR,OVC,0.00,WeatherDisplay:10.37,2013-04-04 02:23:00,
2013-04-03 22:24:00,49.5,20.8,30.31,North,351,0.0,1.1,32,0.00,CLR,OVC,0.00,WeatherDisplay:10.37,2013-04-04 02:24:00,
2013-04-03 22:26:00,49.6,20.2,30.31,North,351,1.1,2.3,31,0.00,CLR,OVC,0.00,WeatherDisplay:10.37,2013-04-04 02:26:00,
2013-04-03 22:29:00,49.6,21.6,30.31,North,351,0.0,0.0,33,0.00,CLR,OVC,0.00,WeatherDisplay:10.37,2013-04-04 02:29:00,
2013-04-03 22:30:00,49.6,21.6,30.31,North,351,0.1,0.0,33,0.00,CLR,OVC,0.00,WeatherDisplay:10.37,2013-04-04 02:30:00,
2013-04-03 22:32:00,49.6,23.0,30.31,North,351,0.0,0.0,35,0.00,CLR,OVC,0.00,WeatherDisplay:10.37,2013-04-04 02:32:00,
2013-04-03 22:34:00,49.5,22.9,30.30,North,351,0.0,2.3,35,0.00,CLR,OVC,0.00,WeatherDisplay:10.37,2013-04-04 02:34:00,
2013-04-03 22:35:00,49.4,21.5,30.31,North,351,0.0,0.0,33,0.00,CLR,OVC,0.00,WeatherDisplay:10.37,2013-04-04 02:35:00,
2013-04-03 22:37:00,49.4,20.7,30.31,North,351,0.0,0.0,32,0.00,CLR,OVC,0.00,WeatherDisplay:10.37,2013-04-04 02:37:00,
2013-04-03 22:39:00,49.4,20.0,30.31,North,351,0.9,3.5,31,0.00,CLR,OVC,0.00,WeatherDisplay:10.37,2013-04-04 02:39:00,
2013-04-03 22:40:00,49.4,20.7,30.31,North,351,0.1,3.5,32,0.00,CLR,OVC,0.00,WeatherDisplay:10.37,2013-04-04 02:40:00,
2013-04-03 22:43:00,49.4,20.7,30.31,North,351,0.3,2.3,32,0.00,CLR,OVC,0.00,WeatherDisplay:10.37,2013-04-04 02:43:00,
2013-04-03 22:45:00,49.4,21.5,30.31,North,351,0.0,2.3,33,0.00,CLR,OVC,0.00,WeatherDisplay:10.37,2013-04-04 02:45:00,
2013-04-03 22:49:00,49.1,21.9,30.31,North,351,1.6,3.5,34,0.00,CLR,OVC,0.00,WeatherDisplay:10.37,2013-04-04 02:49:00,
2013-04-03 22:51:00,48.9,23.1,30.31,North,351,1.6,3.5,36,0.00,CLR,OVC,0.00,WeatherDisplay:10.37,2013-04-04 02:51:00,
2013-04-03 22:52:00,48.8,23.6,30.31,North,351,1.6,2.3,37,0.00,CLR,OVC,0.00,WeatherDisplay:10.37,2013-04-04 02:52:00,
2013-04-03 22:55:00,48.2,23.7,30.31,North,351,1.9,3.0,38,0.00,CLR,OVC,0.00,WeatherDisplay:10.37,2013-04-04 02:55:00,
2013-04-03 22:56:00,47.9,21.5,30.31,North,351,1.1,3.5,35,0.00,CLR,OVC,0.00,WeatherDisplay:10.37,2013-04-04 02:56:00,
2013-04-03 22:57:00,47.9,21.5,30.31,North,351,0.8,3.5,35,0.00,CLR,OVC,0.00,WeatherDisplay:10.37,2013-04-04 02:57:00,
2013-04-03 22:58:00,47.7,22.0,30.31,North,351,0.0,0.0,36,0.00,CLR,OVC,0.00,WeatherDisplay:10.37,2013-04-04 02:58:00,
2013-04-03 23:02:00,47.3,23.6,30.31,North,351,0.0,0.0,39,0.00,CLR,OVC,0.00,WeatherDisplay:10.37,2013-04-04 03:02:00,
2013-04-03 23:05:00,47.1,22.1,30.30,North,351,2.8,3.5,37,0.00,CLR,OVC,0.00,WeatherDisplay:10.37,2013-04-04 03:05:00,
2013-04-03 23:06:00,47.1,20.8,30.30,North,351,3.2,3.5,35,0.00,CLR,OVC,0.00,WeatherDisplay:10.37,2013-04-04 03:06:00,
2013-04-03 23:08:00,47.4,20.4,30.30,North,351,3.0,3.5,34,0.00,CLR,OVC,0.00,WeatherDisplay:10.37,2013-04-04 03:08:00,
2013-04-03 23:10:00,47.7,21.3,30.30,North,351,2.3,3.5,35,0.00,CLR,OVC,0.00,WeatherDisplay:10.37,2013-04-04 03:10:00,
2013-04-03 23:12:00,47.9,23.5,30.30,North,351,1.8,3.5,38,0.00,CLR,OVC,0.00,WeatherDisplay:10.37,2013-04-04 03:12:00,
2013-04-03 23:13:00,47.7,22.7,30.30,North,351,1.8,3.5,37,0.00,CLR,OVC,0.00,WeatherDisplay:10.37,2013-04-04 03:13:00,
2013-04-03 23:16:00,47.3,24.2,30.30,North,351,3.1,3.5,40,0.00,CLR,OVC,0.00,WeatherDisplay:10.37,2013-04-04 03:16:00,
2013-04-03 23:18:00,47.0,25.6,30.30,North,351,2.7,4.0,43,0.00,CLR,OVC,0.00,WeatherDisplay:10.37,2013-04-04 03:18:00,
2013-04-03 23:21:00,46.7,21.1,30.31,North,351,2.6,3.5,36,0.00,CLR,OVC,0.00,WeatherDisplay:10.37,2013-04-04 03:21:00,
2013-04-03 23:22:00,46.7,21.1,30.31,North,351,2.5,3.5,36,0.00,CLR,OVC,0.00,WeatherDisplay:10.37,2013-04-04 03:22:00,
2013-04-03 23:23:00,46.8,21.9,30.31,North,351,2.3,4.0,37,0.00,CLR,OVC,0.00,WeatherDisplay:10.37,2013-04-04 03:23:00,
2013-04-03 23:26:00,47.1,21.5,30.31,North,351,1.5,3.5,36,0.00,CLR,OVC,0.00,WeatherDisplay:10.37,2013-04-04 03:26:00,
2013-04-03 23:27:00,47.1,20.8,30.31,North,351,1.6,3.5,35,0.00,CLR,OVC,0.00,WeatherDisplay:10.37,2013-04-04 03:27:00,
2013-04-03 23:28:00,47.3,21.0,30.31,North,351,2.1,3.5,35,0.00,CLR,OVC,0.00,WeatherDisplay:10.37,2013-04-04 03:28:00,
2013-04-03 23:33:00,47.7,21.3,30.31,North,351,1.3,3.5,35,0.00,CLR,OVC,0.00,WeatherDisplay:10.37,2013-04-04 03:33:00,
2013-04-03 23:34:00,47.7,21.3,30.31,North,351,2.1,3.5,35,0.00,CLR,OVC,0.00,WeatherDisplay:10.37,2013-04-04 03:34:00,
2013-04-03 23:36:00,47.9,20.8,30.31,North,351,2.3,4.0,34,0.00,CLR,OVC,0.00,WeatherDisplay:10.37,2013-04-04 03:36:00,
2013-04-03 23:39:00,47.9,20.1,30.31,North,351,2.6,4.0,33,0.00,CLR,OVC,0.00,WeatherDisplay:10.37,2013-04-04 03:39:00,
2013-04-03 23:42:00,48.0,20.9,30.31,North,351,3.9,5.0,34,0.00,CLR,OVC,0.00,WeatherDisplay:10.37,2013-04-04 03:42:00,
2013-04-03 23:44:00,48.0,20.2,30.31,North,351,4.1,4.6,33,0.00,CLR,OVC,0.00,WeatherDisplay:10.37,2013-04-04 03:44:00,
2013-04-03 23:47:00,47.9,20.8,30.31,North,351,4.2,4.6,34,0.00,CLR,OVC,0.00,WeatherDisplay:10.37,2013-04-04 03:47:00,
2013-04-03 23:49:00,47.7,21.3,30.30,North,351,3.8,5.0,35,0.00,CLR,OVC,0.00,WeatherDisplay:10.37,2013-04-04 03:49:00,
2013-04-03 23:50:00,47.7,20.7,30.30,North,351,3.9,4.6,34,0.00,CLR,OVC,0.00,WeatherDisplay:10.37,2013-04-04 03:50:00,
2013-04-03 23:51:00,47.7,20.7,30.30,North,351,2.7,4.6,34,0.00,CLR,OVC,0.00,WeatherDisplay:10.37,2013-04-04 03:51:00,
2013-04-03 23:54:00,47.4,21.1,30.30,North,5,4.5,5.0,35,0.00,CLR,OVC,0.00,WeatherDisplay:10.37,2013-04-04 03:54:00,
2013-04-03 23:55:00,47.4,21.1,30.30,North,9,3.5,6.9,35,0.00,CLR,OVC,0.00,WeatherDisplay:10.37,2013-04-04 03:55:00,
2013-04-03 23:56:00,47.4,21.1,30.30,North,11,3.9,5.0,35,0.00,CLR,OVC,0.00,WeatherDisplay:10.37,2013-04-04 03:56:00,
2013-04-03 23:59:00,47.4,21.1,30.30,NNE,13,4.0,5.8,35,0.00,CLR,OVC,0.00,WeatherDisplay:10.37,2013-04-04 03:59:00,